Observation data for Happy on 11/16/2019      Previous  Date       Current Mesonet Observations  Soil Data  Daily Summary Page  Observations in Plain Language
KHA2 160600Z 21008KT 02/M03 A3016 RMK A01 T00181029  RH  071%=      5-min Rain = 0
KHA2 160601Z 21009KT 02/M03 A3016 RMK A01 T00191028  RH  071%=      5-min Rain = 0
KHA2 160602Z 21009KT 02/M03 A3016 RMK A01 T00201028  RH  071%=      5-min Rain = 0
KHA2 160603Z 21009KT 02/M03 A3016 RMK A01 T00201028  RH  071%=      5-min Rain = 0
KHA2 160604Z 21008KT 02/M03 A3016 RMK A01 T00201028  RH  071%=      5-min Rain = 0
KHA2 160605Z 21009KT 02/M03 A3016 RMK A01 T00201028  RH  070%=      5-min Rain = 0
KHA2 160606Z 21009KT 02/M03 A3016 RMK A01 T00201028  RH  070%=      5-min Rain = 0
KHA2 160607Z 21009KT 02/M03 A3016 RMK A01 T00191029  RH  070%=      5-min Rain = 0
KHA2 160608Z 21009KT 02/M03 A3016 RMK A01 T00181030  RH  070%=      5-min Rain = 0
KHA2 160609Z 21009KT 02/M03 A3016 RMK A01 T00181029  RH  071%=      5-min Rain = 0
KHA2 160610Z 21009KT 02/M03 A3016 RMK A01 T00181029  RH  071%=      5-min Rain = 0
KHA2 160611Z 21009KT 02/M03 A3016 RMK A01 T00181029  RH  071%=      5-min Rain = 0
KHA2 160612Z 21008KT 02/M03 A3016 RMK A01 T00181029  RH  071%=      5-min Rain = 0
KHA2 160613Z 21009KT 02/M03 A3016 RMK A01 T00181029  RH  071%=      5-min Rain = 0
KHA2 160614Z 21008KT 02/M03 A3016 RMK A01 T00181029  RH  071%=      5-min Rain = 0
KHA2 160615Z 21009KT 02/M03 A3016 RMK A01 T00181029  RH  071%=      5-min Rain = 0
KHA2 160616Z 21009KT 02/M03 A3016 RMK A01 T00191029  RH  071%=      5-min Rain = 0
KHA2 160617Z 21009KT 02/M03 A3016 RMK A01 T00191029  RH  071%=      5-min Rain = 0
KHA2 160618Z 21009KT 02/M03 A3016 RMK A01 T00191029  RH  071%=      5-min Rain = 0
KHA2 160619Z 21009KT 02/M03 A3016 RMK A01 T00191029  RH  070%=      5-min Rain = 0
KHA2 160620Z 21009KT 02/M03 A3016 RMK A01 T00191029  RH  071%=      5-min Rain = 0
KHA2 160621Z 21010KT 02/M03 A3016 RMK A01 T00191029  RH  071%=      5-min Rain = 0
KHA2 160622Z 21009KT 02/M03 A3016 RMK A01 T00191028  RH  071%=      5-min Rain = 0
KHA2 160623Z 21010KT 02/M03 A3016 RMK A01 T00191028  RH  071%=      5-min Rain = 0
KHA2 160624Z 21009KT 02/M03 A3016 RMK A01 T00191028  RH  071%=      5-min Rain = 0
KHA2 160625Z 21009KT 02/M03 A3016 RMK A01 T00191029  RH  071%=      5-min Rain = 0
KHA2 160626Z 20009KT 02/M03 A3016 RMK A01 T00191029  RH  071%=      5-min Rain = 0
KHA2 160627Z 20010KT 02/M03 A3016 RMK A01 T00181029  RH  071%=      5-min Rain = 0
KHA2 160628Z 20009KT 02/M03 A3016 RMK A01 T00181028  RH  071%=      5-min Rain = 0
KHA2 160629Z 20009KT 02/M03 A3016 RMK A01 T00171029  RH  071%=      5-min Rain = 0
KHA2 160630Z 20009KT 02/M03 A3016 RMK A01 T00171029  RH  072%=      5-min Rain = 0
KHA2 160631Z 20009KT 02/M03 A3016 RMK A01 T00171029  RH  072%=      5-min Rain = 0
KHA2 160632Z 20009KT 02/M03 A3016 RMK A01 T00161029  RH  072%=      5-min Rain = 0
KHA2 160633Z 21009KT 02/M03 A3016 RMK A01 T00151030  RH  072%=      5-min Rain = 0
KHA2 160634Z 21009KT 02/M03 A3016 RMK A01 T00151030  RH  072%=      5-min Rain = 0
KHA2 160635Z 21009KT 02/M03 A3016 RMK A01 T00151030  RH  072%=      5-min Rain = 0
KHA2 160636Z 21009KT 01/M03 A3016 RMK A01 T00141030  RH  073%=      5-min Rain = 0
KHA2 160637Z 21009KT 01/M03 A3016 RMK A01 T00141030  RH  073%=      5-min Rain = 0
KHA2 160638Z 21009KT 01/M03 A3016 RMK A01 T00131030  RH  073%=      5-min Rain = 0
KHA2 160639Z 21009KT 01/M03 A3016 RMK A01 T00131031  RH  073%=      5-min Rain = 0
KHA2 160640Z 21010KT 01/M03 A3016 RMK A01 T00121031  RH  073%=      5-min Rain = 0
KHA2 160641Z 21010KT 01/M03 A3016 RMK A01 T00111031  RH  073%=      5-min Rain = 0
KHA2 160642Z 21010KT 01/M03 A3016 RMK A01 T00111031  RH  074%=      5-min Rain = 0
KHA2 160643Z 21010KT 01/M03 A3016 RMK A01 T00111031  RH  074%=      5-min Rain = 0
KHA2 160644Z 21009KT 01/M03 A3016 RMK A01 T00111031  RH  074%=      5-min Rain = 0
KHA2 160645Z 21009KT 01/M03 A3016 RMK A01 T00111031  RH  074%=      5-min Rain = 0
KHA2 160646Z 21009KT 01/M03 A3016 RMK A01 T00111031  RH  074%=      5-min Rain = 0
KHA2 160647Z 21009KT 01/M03 A3016 RMK A01 T00111030  RH  074%=      5-min Rain = 0
KHA2 160648Z 21009KT 01/M03 A3016 RMK A01 T00111030  RH  074%=      5-min Rain = 0
KHA2 160649Z 21009KT 01/M03 A3016 RMK A01 T00121030  RH  074%=      5-min Rain = 0
KHA2 160650Z 21009KT 01/M03 A3016 RMK A01 T00121030  RH  074%=      5-min Rain = 0
KHA2 160651Z 21009KT 01/M03 A3016 RMK A01 T00121030  RH  074%=      5-min Rain = 0
KHA2 160652Z 21009KT 01/M03 A3015 RMK A01 T00121030  RH  074%=      5-min Rain = 0
KHA2 160653Z 21009KT 01/M03 A3015 RMK A01 T00121030  RH  074%=      5-min Rain = 0
KHA2 160654Z 21009KT 01/M03 A3015 RMK A01 T00121029  RH  074%=      5-min Rain = 0
KHA2 160655Z 21009KT 01/M03 A3015 RMK A01 T00131029  RH  074%=      5-min Rain = 0
KHA2 160656Z 21009KT 01/M03 A3015 RMK A01 T00131029  RH  074%=      5-min Rain = 0
KHA2 160657Z 21009KT 01/M03 A3015 RMK A01 T00131029  RH  074%=      5-min Rain = 0
KHA2 160658Z 21009KT 01/M03 A3015 RMK A01 T00131029  RH  073%=      5-min Rain = 0
KHA2 160659Z 21009KT 01/M03 A3015 RMK A01 T00121030  RH  073%=      5-min Rain = 0
KHA2 160700Z 21009KT 01/M03 A3015 RMK A01 T00121030  RH  074%=      5-min Rain = 0
KHA2 160701Z 22009KT 01/M03 A3015 RMK A01 T00121030  RH  074%=      5-min Rain = 0
KHA2 160702Z 21009KT 01/M03 A3015 RMK A01 T00111030  RH  074%=      5-min Rain = 0
KHA2 160703Z 21009KT 01/M03 A3015 RMK A01 T00111030  RH  074%=      5-min Rain = 0
KHA2 160704Z 22009KT 01/M03 A3015 RMK A01 T00111030  RH  074%=      5-min Rain = 0
KHA2 160705Z 21009KT 01/M03 A3015 RMK A01 T00121029  RH  074%=      5-min Rain = 0
KHA2 160706Z 21009KT 01/M03 A3015 RMK A01 T00131029  RH  074%=      5-min Rain = 0
KHA2 160707Z 21009KT 01/M03 A3015 RMK A01 T00131029  RH  074%=      5-min Rain = 0
KHA2 160708Z 21009KT 01/M03 A3015 RMK A01 T00131029  RH  073%=      5-min Rain = 0
KHA2 160709Z 22009KT 01/M03 A3015 RMK A01 T00141028  RH  073%=      5-min Rain = 0
KHA2 160710Z 21009KT 01/M03 A3015 RMK A01 T00141028  RH  073%=      5-min Rain = 0
KHA2 160711Z 21009KT 02/M03 A3015 RMK A01 T00151028  RH  073%=      5-min Rain = 0
KHA2 160712Z 22009KT 02/M03 A3015 RMK A01 T00151027  RH  073%=      5-min Rain = 0
KHA2 160713Z 21009KT 02/M03 A3015 RMK A01 T00161027  RH  073%=      5-min Rain = 0
KHA2 160714Z 22009KT 02/M03 A3015 RMK A01 T00161027  RH  073%=      5-min Rain = 0
KHA2 160715Z 21008KT 02/M03 A3015 RMK A01 T00161028  RH  073%=      5-min Rain = 0
KHA2 160716Z 21009KT 02/M03 A3015 RMK A01 T00161027  RH  073%=      5-min Rain = 0
KHA2 160717Z 22009KT 02/M03 A3015 RMK A01 T00161027  RH  073%=      5-min Rain = 0
KHA2 160718Z 21009KT 02/M03 A3015 RMK A01 T00161028  RH  073%=      5-min Rain = 0
KHA2 160719Z 22010KT 02/M03 A3014 RMK A01 T00161028  RH  073%=      5-min Rain = 0
KHA2 160720Z 22010KT 02/M03 A3014 RMK A01 T00181027  RH  072%=      5-min Rain = 0
KHA2 160721Z 22010KT 02/M03 A3014 RMK A01 T00191026  RH  072%=      5-min Rain = 0
KHA2 160722Z 21009KT 02/M03 A3014 RMK A01 T00191026  RH  072%=      5-min Rain = 0
KHA2 160723Z 21010KT 02/M03 A3014 RMK A01 T00201026  RH  072%=      5-min Rain = 0
KHA2 160724Z 21010KT 02/M03 A3014 RMK A01 T00201026  RH  071%=      5-min Rain = 0
KHA2 160725Z 21010KT 02/M03 A3014 RMK A01 T00211026  RH  071%=      5-min Rain = 0
KHA2 160726Z 21010KT 02/M03 A3014 RMK A01 T00211026  RH  071%=      5-min Rain = 0
KHA2 160727Z 21009KT 02/M03 A3014 RMK A01 T00221026  RH  071%=      5-min Rain = 0
KHA2 160728Z 21010KT 02/M03 A3014 RMK A01 T00221026  RH  071%=      5-min Rain = 0
KHA2 160729Z 22010KT 02/M03 A3014 RMK A01 T00221025  RH  071%=      5-min Rain = 0
KHA2 160730Z 22010KT 02/M03 A3014 RMK A01 T00231025  RH  070%=      5-min Rain = 0
KHA2 160731Z 22011KT 02/M03 A3014 RMK A01 T00241025  RH  070%=      5-min Rain = 0
KHA2 160732Z 22011KT 02/M03 A3014 RMK A01 T00241025  RH  070%=      5-min Rain = 0
KHA2 160733Z 21011KT 03/M02 A3014 RMK A01 T00261024  RH  070%=      5-min Rain = 0
KHA2 160734Z 22011KT 03/M02 A3014 RMK A01 T00261024  RH  069%=      5-min Rain = 0
KHA2 160735Z 22011KT 03/M03 A3014 RMK A01 T00261025  RH  069%=      5-min Rain = 0
KHA2 160736Z 22010KT 03/M02 A3014 RMK A01 T00271024  RH  069%=      5-min Rain = 0
KHA2 160737Z 22011KT 03/M02 A3014 RMK A01 T00271024  RH  069%=      5-min Rain = 0
KHA2 160738Z 22011KT 03/M03 A3014 RMK A01 T00261025  RH  069%=      5-min Rain = 0
KHA2 160739Z 22010KT 03/M03 A3014 RMK A01 T00271025  RH  069%=      5-min Rain = 0
KHA2 160740Z 22011KT 03/M03 A3014 RMK A01 T00271025  RH  069%=      5-min Rain = 0
KHA2 160741Z 22011KT 03/M02 A3014 RMK A01 T00271024  RH  069%=      5-min Rain = 0
KHA2 160742Z 22011KT 03/M03 A3014 RMK A01 T00271025  RH  069%=      5-min Rain = 0
KHA2 160743Z 22012KT 03/M02 A3014 RMK A01 T00271024  RH  069%=      5-min Rain = 0
KHA2 160744Z 22011KT 03/M02 A3014 RMK A01 T00271024  RH  069%=      5-min Rain = 0
KHA2 160745Z 22012KT 03/M02 A3014 RMK A01 T00281024  RH  069%=      5-min Rain = 0
KHA2 160746Z 22011KT 03/M02 A3014 RMK A01 T00291023  RH  069%=      5-min Rain = 0
KHA2 160747Z 22012KT 03/M02 A3014 RMK A01 T00291023  RH  068%=      5-min Rain = 0
KHA2 160748Z 22011KT 03/M02 A3014 RMK A01 T00291024  RH  068%=      5-min Rain = 0
KHA2 160749Z 22011KT 03/M02 A3014 RMK A01 T00301023  RH  068%=      5-min Rain = 0
KHA2 160750Z 22011KT 03/M02 A3014 RMK A01 T00301023  RH  068%=      5-min Rain = 0
KHA2 160751Z 22011KT 03/M02 A3014 RMK A01 T00291024  RH  068%=      5-min Rain = 0
KHA2 160752Z 22011KT 03/M02 A3014 RMK A01 T00281024  RH  068%=      5-min Rain = 0
KHA2 160753Z 21010KT 03/M02 A3014 RMK A01 T00281024  RH  069%=      5-min Rain = 0
KHA2 160754Z 21011KT 03/M02 A3014 RMK A01 T00281024  RH  069%=      5-min Rain = 0
KHA2 160755Z 21010KT 03/M02 A3014 RMK A01 T00271024  RH  069%=      5-min Rain = 0
KHA2 160756Z 21010KT 03/M02 A3014 RMK A01 T00261024  RH  069%=      5-min Rain = 0
KHA2 160757Z 21010KT 03/M02 A3014 RMK A01 T00261024  RH  069%=      5-min Rain = 0
KHA2 160758Z 21010KT 03/M02 A3014 RMK A01 T00261024  RH  069%=      5-min Rain = 0
KHA2 160759Z 21010KT 03/M02 A3014 RMK A01 T00261024  RH  069%=      5-min Rain = 0
KHA2 160800Z 21010KT 03/M02 A3013 RMK A01 T00261024  RH  069%=      5-min Rain = 0
KHA2 160801Z 22010KT 03/M03 A3013 RMK A01 T00261025  RH  069%=      5-min Rain = 0
KHA2 160802Z 22010KT 03/M03 A3013 RMK A01 T00251025  RH  070%=      5-min Rain = 0
KHA2 160803Z 22010KT 02/M03 A3013 RMK A01 T00241025  RH  070%=      5-min Rain = 0
KHA2 160804Z 22010KT 02/M03 A3013 RMK A01 T00241025  RH  070%=      5-min Rain = 0
KHA2 160805Z 22010KT 02/M03 A3013 RMK A01 T00231025  RH  070%=      5-min Rain = 0
KHA2 160806Z 22010KT 02/M03 A3013 RMK A01 T00231025  RH  070%=      5-min Rain = 0
KHA2 160807Z 22010KT 02/M03 A3013 RMK A01 T00221025  RH  071%=      5-min Rain = 0
KHA2 160808Z 22010KT 02/M03 A3013 RMK A01 T00221025  RH  071%=      5-min Rain = 0
KHA2 160809Z 22010KT 02/M03 A3013 RMK A01 T00221025  RH  071%=      5-min Rain = 0
KHA2 160810Z 22010KT 02/M03 A3013 RMK A01 T00221025  RH  071%=      5-min Rain = 0
KHA2 160811Z 22010KT 02/M03 A3013 RMK A01 T00221025  RH  071%=      5-min Rain = 0
KHA2 160812Z 22010KT 02/M03 A3013 RMK A01 T00211025  RH  071%=      5-min Rain = 0
KHA2 160813Z 22011KT 02/M03 A3013 RMK A01 T00211025  RH  071%=      5-min Rain = 0
KHA2 160814Z 22010KT 02/M03 A3013 RMK A01 T00221025  RH  071%=      5-min Rain = 0
KHA2 160815Z 22010KT 02/M03 A3013 RMK A01 T00221025  RH  071%=      5-min Rain = 0
KHA2 160816Z 22010KT 02/M03 A3013 RMK A01 T00211025  RH  071%=      5-min Rain = 0
KHA2 160817Z 22011KT 02/M03 A3013 RMK A01 T00211025  RH  071%=      5-min Rain = 0
KHA2 160818Z 22010KT 02/M03 A3013 RMK A01 T00211025  RH  071%=      5-min Rain = 0
KHA2 160819Z 22011KT 02/M03 A3013 RMK A01 T00211025  RH  071%=      5-min Rain = 0
KHA2 160820Z 22011KT 02/M03 A3013 RMK A01 T00211025  RH  071%=      5-min Rain = 0
KHA2 160821Z 22011KT 02/M03 A3013 RMK A01 T00211025  RH  071%=      5-min Rain = 0
KHA2 160822Z 22010KT 02/M03 A3013 RMK A01 T00211025  RH  071%=      5-min Rain = 0
KHA2 160823Z 22010KT 02/M03 A3013 RMK A01 T00211025  RH  071%=      5-min Rain = 0
KHA2 160824Z 22011KT 02/M03 A3013 RMK A01 T00211025  RH  071%=      5-min Rain = 0
KHA2 160825Z 22010KT 02/M03 A3013 RMK A01 T00211025  RH  071%=      5-min Rain = 0
KHA2 160826Z 22010KT 02/M03 A3013 RMK A01 T00211025  RH  071%=      5-min Rain = 0
KHA2 160827Z 22010KT 02/M03 A3013 RMK A01 T00211025  RH  071%=      5-min Rain = 0
KHA2 160828Z 22010KT 02/M03 A3013 RMK A01 T00211025  RH  071%=      5-min Rain = 0
KHA2 160829Z 22010KT 02/M03 A3013 RMK A01 T00211025  RH  072%=      5-min Rain = 0
KHA2 160830Z 22010KT 02/M03 A3013 RMK A01 T00201025  RH  072%=      5-min Rain = 0
KHA2 160831Z 22009KT 02/M03 A3013 RMK A01 T00201025  RH  072%=      5-min Rain = 0
KHA2 160832Z 22010KT 02/M03 A3013 RMK A01 T00201025  RH  072%=      5-min Rain = 0
KHA2 160833Z 22009KT 02/M03 A3013 RMK A01 T00211025  RH  072%=      5-min Rain = 0
KHA2 160834Z 23009KT 02/M03 A3013 RMK A01 T00211025  RH  072%=      5-min Rain = 0
KHA2 160835Z 22009KT 02/M03 A3013 RMK A01 T00211025  RH  072%=      5-min Rain = 0
KHA2 160836Z 22009KT 02/M03 A3013 RMK A01 T00201025  RH  072%=      5-min Rain = 0
KHA2 160837Z 22009KT 02/M03 A3013 RMK A01 T00201025  RH  072%=      5-min Rain = 0
KHA2 160838Z 22009KT 02/M03 A3013 RMK A01 T00201026  RH  072%=      5-min Rain = 0
KHA2 160839Z 22009KT 02/M03 A3013 RMK A01 T00201026  RH  072%=      5-min Rain = 0
KHA2 160840Z 22010KT 02/M03 A3013 RMK A01 T00201026  RH  072%=      5-min Rain = 0
KHA2 160841Z 22010KT 02/M03 A3013 RMK A01 T00191026  RH  072%=      5-min Rain = 0
KHA2 160842Z 22010KT 02/M03 A3013 RMK A01 T00191026  RH  072%=      5-min Rain = 0
KHA2 160843Z 22010KT 02/M03 A3013 RMK A01 T00191026  RH  072%=      5-min Rain = 0
KHA2 160844Z 22009KT 02/M03 A3013 RMK A01 T00191026  RH  072%=      5-min Rain = 0
KHA2 160845Z 22010KT 02/M03 A3013 RMK A01 T00191026  RH  072%=      5-min Rain = 0
KHA2 160846Z 22010KT 02/M03 A3013 RMK A01 T00191026  RH  072%=      5-min Rain = 0
KHA2 160847Z 22011KT 02/M03 A3013 RMK A01 T00191026  RH  072%=      5-min Rain = 0
KHA2 160848Z 23010KT 02/M03 A3013 RMK A01 T00191026  RH  072%=      5-min Rain = 0
KHA2 160849Z 23010KT 02/M03 A3013 RMK A01 T00191026  RH  072%=      5-min Rain = 0
KHA2 160850Z 23011KT 02/M03 A3013 RMK A01 T00191026  RH  072%=      5-min Rain = 0
KHA2 160851Z 22010KT 02/M03 A3013 RMK A01 T00191026  RH  072%=      5-min Rain = 0
KHA2 160852Z 22010KT 02/M03 A3013 RMK A01 T00191026  RH  072%=      5-min Rain = 0
KHA2 160853Z 22011KT 02/M03 A3013 RMK A01 T00201025  RH  072%=      5-min Rain = 0
KHA2 160854Z 22011KT 02/M03 A3012 RMK A01 T00201025  RH  072%=      5-min Rain = 0
KHA2 160855Z 22011KT 02/M03 A3012 RMK A01 T00201025  RH  072%=      5-min Rain = 0
KHA2 160856Z 22011KT 02/M03 A3012 RMK A01 T00201025  RH  072%=      5-min Rain = 0
KHA2 160857Z 22011KT 02/M03 A3012 RMK A01 T00201025  RH  072%=      5-min Rain = 0
KHA2 160858Z 22011KT 02/M03 A3012 RMK A01 T00201025  RH  072%=      5-min Rain = 0
KHA2 160859Z 22010KT 02/M03 A3012 RMK A01 T00201025  RH  072%=      5-min Rain = 0
KHA2 160900Z 22011KT 02/M03 A3012 RMK A01 T00191025  RH  073%=      5-min Rain = 0
KHA2 160901Z 22011KT 02/M03 A3012 RMK A01 T00191025  RH  073%=      5-min Rain = 0
KHA2 160902Z 22011KT 02/M03 A3012 RMK A01 T00191025  RH  073%=      5-min Rain = 0
KHA2 160903Z 22011KT 02/M03 A3012 RMK A01 T00191025  RH  073%=      5-min Rain = 0
KHA2 160904Z 22010KT 02/M03 A3012 RMK A01 T00191025  RH  073%=      5-min Rain = 0
KHA2 160905Z 22011KT 02/M03 A3012 RMK A01 T00191025  RH  073%=      5-min Rain = 0
KHA2 160906Z 22011KT 02/M03 A3012 RMK A01 T00191025  RH  072%=      5-min Rain = 0
KHA2 160907Z 22011KT 02/M03 A3012 RMK A01 T00191025  RH  072%=      5-min Rain = 0
KHA2 160908Z 22011KT 02/M03 A3012 RMK A01 T00191025  RH  072%=      5-min Rain = 0
KHA2 160909Z 22011KT 02/M03 A3012 RMK A01 T00191025  RH  073%=      5-min Rain = 0
KHA2 160910Z 22011KT 02/M03 A3012 RMK A01 T00191025  RH  073%=      5-min Rain = 0
KHA2 160911Z 22011KT 02/M03 A3012 RMK A01 T00191025  RH  073%=      5-min Rain = 0
KHA2 160912Z 22010KT 02/M03 A3012 RMK A01 T00181026  RH  073%=      5-min Rain = 0
KHA2 160913Z 22010KT 02/M03 A3012 RMK A01 T00181026  RH  073%=      5-min Rain = 0
KHA2 160914Z 22010KT 02/M03 A3012 RMK A01 T00181025  RH  073%=      5-min Rain = 0
KHA2 160915Z 22010KT 02/M03 A3012 RMK A01 T00171026  RH  073%=      5-min Rain = 0
KHA2 160916Z 22010KT 02/M03 A3012 RMK A01 T00171026  RH  073%=      5-min Rain = 0
KHA2 160917Z 22010KT 02/M03 A3012 RMK A01 T00171026  RH  073%=      5-min Rain = 0
KHA2 160918Z 22010KT 02/M03 A3012 RMK A01 T00161026  RH  073%=      5-min Rain = 0
KHA2 160919Z 22010KT 02/M03 A3012 RMK A01 T00161026  RH  074%=      5-min Rain = 0
KHA2 160920Z 22010KT 02/M03 A3012 RMK A01 T00161026  RH  074%=      5-min Rain = 0
KHA2 160921Z 22010KT 02/M03 A3012 RMK A01 T00151026  RH  074%=      5-min Rain = 0
KHA2 160922Z 22010KT 02/M03 A3012 RMK A01 T00151026  RH  074%=      5-min Rain = 0
KHA2 160923Z 22009KT 02/M03 A3012 RMK A01 T00151027  RH  074%=      5-min Rain = 0
KHA2 160924Z 22009KT 01/M03 A3012 RMK A01 T00141027  RH  074%=      5-min Rain = 0
KHA2 160925Z 22009KT 01/M03 A3012 RMK A01 T00141027  RH  074%=      5-min Rain = 0
KHA2 160926Z 22009KT 01/M03 A3012 RMK A01 T00141027  RH  074%=      5-min Rain = 0
KHA2 160927Z 22009KT 01/M03 A3012 RMK A01 T00141027  RH  075%=      5-min Rain = 0
KHA2 160928Z 22009KT 01/M03 A3012 RMK A01 T00131027  RH  075%=      5-min Rain = 0
KHA2 160929Z 22009KT 01/M03 A3012 RMK A01 T00141026  RH  075%=      5-min Rain = 0
KHA2 160930Z 22009KT 01/M03 A3012 RMK A01 T00141026  RH  075%=      5-min Rain = 0
KHA2 160931Z 22009KT 01/M03 A3012 RMK A01 T00141026  RH  075%=      5-min Rain = 0
KHA2 160932Z 22009KT 01/M03 A3012 RMK A01 T00141026  RH  075%=      5-min Rain = 0
KHA2 160933Z 22009KT 01/M03 A3012 RMK A01 T00141025  RH  075%=      5-min Rain = 0
KHA2 160934Z 22009KT 01/M03 A3012 RMK A01 T00141026  RH  075%=      5-min Rain = 0
KHA2 160935Z 22009KT 01/M03 A3012 RMK A01 T00141025  RH  075%=      5-min Rain = 0
KHA2 160936Z 22009KT 01/M03 A3012 RMK A01 T00141025  RH  075%=      5-min Rain = 0
KHA2 160937Z 22009KT 01/M03 A3012 RMK A01 T00141025  RH  075%=      5-min Rain = 0
KHA2 160938Z 22009KT 01/M03 A3012 RMK A01 T00141025  RH  075%=      5-min Rain = 0
KHA2 160939Z 22009KT 02/M02 A3012 RMK A01 T00151024  RH  075%=      5-min Rain = 0
KHA2 160940Z 22009KT 02/M02 A3012 RMK A01 T00161024  RH  075%=      5-min Rain = 0
KHA2 160941Z 22009KT 02/M02 A3012 RMK A01 T00161024  RH  075%=      5-min Rain = 0
KHA2 160942Z 22009KT 02/M02 A3011 RMK A01 T00161024  RH  075%=      5-min Rain = 0
KHA2 160943Z 22009KT 02/M02 A3011 RMK A01 T00161024  RH  075%=      5-min Rain = 0
KHA2 160944Z 22010KT 02/M02 A3011 RMK A01 T00161024  RH  075%=      5-min Rain = 0
KHA2 160945Z 22011KT 02/M02 A3011 RMK A01 T00161023  RH  075%=      5-min Rain = 0
KHA2 160946Z 22011KT 02/M02 A3011 RMK A01 T00181022  RH  075%=      5-min Rain = 0
KHA2 160947Z 22010KT 02/M02 A3011 RMK A01 T00201022  RH  074%=      5-min Rain = 0
KHA2 160948Z 22009KT 02/M02 A3011 RMK A01 T00201022  RH  074%=      5-min Rain = 0
KHA2 160949Z 22010KT 02/M02 A3011 RMK A01 T00201022  RH  074%=      5-min Rain = 0
KHA2 160950Z 22010KT 02/M02 A3011 RMK A01 T00201023  RH  074%=      5-min Rain = 0
KHA2 160951Z 22010KT 02/M02 A3011 RMK A01 T00191023  RH  074%=      5-min Rain = 0
KHA2 160952Z 22010KT 02/M02 A3011 RMK A01 T00191023  RH  074%=      5-min Rain = 0
KHA2 160953Z 22009KT 02/M02 A3011 RMK A01 T00191023  RH  074%=      5-min Rain = 0
KHA2 160954Z 22009KT 02/M02 A3011 RMK A01 T00191023  RH  074%=      5-min Rain = 0
KHA2 160955Z 22010KT 02/M02 A3011 RMK A01 T00191022  RH  074%=      5-min Rain = 0
KHA2 160956Z 22010KT 02/M02 A3011 RMK A01 T00181022  RH  074%=      5-min Rain = 0
KHA2 160957Z 22010KT 02/M02 A3011 RMK A01 T00191022  RH  074%=      5-min Rain = 0
KHA2 160958Z 22010KT 02/M02 A3011 RMK A01 T00181023  RH  074%=      5-min Rain = 0
KHA2 160959Z 22010KT 02/M02 A3011 RMK A01 T00191022  RH  074%=      5-min Rain = 0
KHA2 161000Z 22010KT 02/M02 A3011 RMK A01 T00191022  RH  074%=      5-min Rain = 0
KHA2 161001Z 22010KT 02/M02 A3011 RMK A01 T00191022  RH  074%=      5-min Rain = 0
KHA2 161002Z 22010KT 02/M02 A3011 RMK A01 T00191022  RH  074%=      5-min Rain = 0
KHA2 161003Z 22010KT 02/M02 A3011 RMK A01 T00191022  RH  074%=      5-min Rain = 0
KHA2 161004Z 22010KT 02/M02 A3011 RMK A01 T00191022  RH  074%=      5-min Rain = 0
KHA2 161005Z 22010KT 02/M02 A3011 RMK A01 T00191022  RH  074%=      5-min Rain = 0
KHA2 161006Z 22010KT 02/M02 A3011 RMK A01 T00181022  RH  074%=      5-min Rain = 0
KHA2 161007Z 22010KT 02/M02 A3011 RMK A01 T00191022  RH  074%=      5-min Rain = 0
KHA2 161008Z 22010KT 02/M02 A3011 RMK A01 T00191022  RH  074%=      5-min Rain = 0
KHA2 161009Z 22010KT 02/M02 A3011 RMK A01 T00191022  RH  074%=      5-min Rain = 0
KHA2 161010Z 22010KT 02/M02 A3011 RMK A01 T00191022  RH  074%=      5-min Rain = 0
KHA2 161011Z 22009KT 02/M02 A3011 RMK A01 T00201021  RH  074%=      5-min Rain = 0
KHA2 161012Z 22009KT 02/M02 A3011 RMK A01 T00211021  RH  074%=      5-min Rain = 0
KHA2 161013Z 22009KT 02/M02 A3011 RMK A01 T00211021  RH  074%=      5-min Rain = 0
KHA2 161014Z 22009KT 02/M02 A3011 RMK A01 T00211021  RH  074%=      5-min Rain = 0
KHA2 161015Z 22009KT 02/M02 A3011 RMK A01 T00211021  RH  074%=      5-min Rain = 0
KHA2 161016Z 22009KT 02/M02 A3011 RMK A01 T00211020  RH  074%=      5-min Rain = 0
KHA2 161017Z 22009KT 02/M02 A3011 RMK A01 T00211021  RH  074%=      5-min Rain = 0
KHA2 161018Z 22009KT 02/M02 A3011 RMK A01 T00201021  RH  074%=      5-min Rain = 0
KHA2 161019Z 22009KT 02/M02 A3011 RMK A01 T00201022  RH  074%=      5-min Rain = 0
KHA2 161020Z 22009KT 02/M02 A3011 RMK A01 T00191022  RH  074%=      5-min Rain = 0
KHA2 161021Z 22009KT 02/M02 A3011 RMK A01 T00181022  RH  074%=      5-min Rain = 0
KHA2 161022Z 22009KT 02/M02 A3011 RMK A01 T00181023  RH  075%=      5-min Rain = 0
KHA2 161023Z 22009KT 02/M02 A3011 RMK A01 T00171023  RH  075%=      5-min Rain = 0
KHA2 161024Z 22009KT 02/M02 A3011 RMK A01 T00161023  RH  075%=      5-min Rain = 0
KHA2 161025Z 22008KT 02/M02 A3011 RMK A01 T00161023  RH  075%=      5-min Rain = 0
KHA2 161026Z 22008KT 02/M02 A3011 RMK A01 T00161022  RH  076%=      5-min Rain = 0
KHA2 161027Z 22008KT 02/M02 A3011 RMK A01 T00161022  RH  076%=      5-min Rain = 0
KHA2 161028Z 22008KT 02/M02 A3011 RMK A01 T00151022  RH  076%=      5-min Rain = 0
KHA2 161029Z 22008KT 02/M02 A3011 RMK A01 T00151023  RH  076%=      5-min Rain = 0
KHA2 161030Z 22008KT 01/M02 A3011 RMK A01 T00141023  RH  076%=      5-min Rain = 0
KHA2 161031Z 22008KT 01/M02 A3011 RMK A01 T00141023  RH  077%=      5-min Rain = 0
KHA2 161032Z 22008KT 01/M02 A3011 RMK A01 T00141023  RH  077%=      5-min Rain = 0
KHA2 161033Z 22008KT 01/M02 A3011 RMK A01 T00131023  RH  077%=      5-min Rain = 0
KHA2 161034Z 22008KT 01/M02 A3011 RMK A01 T00131023  RH  077%=      5-min Rain = 0
KHA2 161035Z 22008KT 01/M02 A3011 RMK A01 T00121023  RH  077%=      5-min Rain = 0
KHA2 161036Z 22008KT 01/M02 A3011 RMK A01 T00121023  RH  078%=      5-min Rain = 0
KHA2 161037Z 21008KT 01/M02 A3011 RMK A01 T00121022  RH  078%=      5-min Rain = 0
KHA2 161038Z 21008KT 01/M02 A3011 RMK A01 T00121022  RH  078%=      5-min Rain = 0
KHA2 161039Z 21008KT 01/M02 A3011 RMK A01 T00121021  RH  078%=      5-min Rain = 0
KHA2 161040Z 21008KT 01/M02 A3011 RMK A01 T00121021  RH  078%=      5-min Rain = 0
KHA2 161041Z 21008KT 01/M02 A3011 RMK A01 T00121021  RH  079%=      5-min Rain = 0
KHA2 161042Z 21008KT 01/M02 A3011 RMK A01 T00121021  RH  079%=      5-min Rain = 0
KHA2 161043Z 21008KT 01/M02 A3011 RMK A01 T00131020  RH  079%=      5-min Rain = 0
KHA2 161044Z 21008KT 01/M02 A3011 RMK A01 T00121021  RH  079%=      5-min Rain = 0
KHA2 161045Z 21009KT 01/M02 A3011 RMK A01 T00131021  RH  079%=      5-min Rain = 0
KHA2 161046Z 21008KT 01/M02 A3011 RMK A01 T00131021  RH  078%=      5-min Rain = 0
KHA2 161047Z 21008KT 01/M02 A3011 RMK A01 T00121021  RH  079%=      5-min Rain = 0
KHA2 161048Z 21008KT 01/M02 A3011 RMK A01 T00111022  RH  079%=      5-min Rain = 0
KHA2 161049Z 21008KT 01/M02 A3011 RMK A01 T00111022  RH  079%=      5-min Rain = 0
KHA2 161050Z 21008KT 01/M02 A3011 RMK A01 T00101023  RH  079%=      5-min Rain = 0
KHA2 161051Z 21008KT 01/M02 A3011 RMK A01 T00101022  RH  079%=      5-min Rain = 0
KHA2 161052Z 21008KT 01/M02 A3011 RMK A01 T00091022  RH  080%=      5-min Rain = 0
KHA2 161053Z 21008KT 01/M02 A3011 RMK A01 T00091023  RH  080%=      5-min Rain = 0
KHA2 161054Z 21008KT 01/M02 A3011 RMK A01 T00081023  RH  080%=      5-min Rain = 0
KHA2 161055Z 21008KT 01/M02 A3011 RMK A01 T00081023  RH  080%=      5-min Rain = 0
KHA2 161056Z 21008KT 01/M02 A3011 RMK A01 T00081023  RH  080%=      5-min Rain = 0
KHA2 161057Z 21008KT 01/M02 A3011 RMK A01 T00071023  RH  080%=      5-min Rain = 0
KHA2 161058Z 21008KT 01/M02 A3011 RMK A01 T00071023  RH  080%=      5-min Rain = 0
KHA2 161059Z 20007KT 01/M02 A3011 RMK A01 T00061024  RH  080%=      5-min Rain = 0
KHA2 161100Z 20007KT 01/M02 A3011 RMK A01 T00061024  RH  080%=      5-min Rain = 0
KHA2 161101Z 20007KT 01/M02 A3011 RMK A01 T00051024  RH  081%=      5-min Rain = 0
KHA2 161102Z 20007KT 01/M02 A3011 RMK A01 T00051024  RH  081%=      5-min Rain = 0
KHA2 161103Z 20006KT 01/M02 A3011 RMK A01 T00051024  RH  081%=      5-min Rain = 0
KHA2 161104Z 20007KT 01/M02 A3011 RMK A01 T00051024  RH  081%=      5-min Rain = 0
KHA2 161105Z 20007KT 00/M02 A3011 RMK A01 T00041024  RH  081%=      5-min Rain = 0
KHA2 161106Z 20007KT 00/M02 A3011 RMK A01 T00041024  RH  081%=      5-min Rain = 0
KHA2 161107Z 20006KT 00/M02 A3011 RMK A01 T00041024  RH  081%=      5-min Rain = 0
KHA2 161108Z 20007KT 00/M03 A3011 RMK A01 T00031025  RH  081%=      5-min Rain = 0
KHA2 161109Z 21007KT 00/M03 A301 RMK A01 T00031025  RH  082%=      5-min Rain = 0
KHA2 161110Z 21007KT 00/M02 A301 RMK A01 T00031024  RH  082%=      5-min Rain = 0
KHA2 161111Z 21007KT 00/M02 A301 RMK A01 T00031024  RH  082%=      5-min Rain = 0
KHA2 161112Z 21007KT 00/M03 A301 RMK A01 T00021025  RH  082%=      5-min Rain = 0
KHA2 161113Z 20007KT 00/M02 A301 RMK A01 T00021024  RH  082%=      5-min Rain = 0
KHA2 161114Z 20008KT 00/M03 A301 RMK A01 T00021025  RH  082%=      5-min Rain = 0
KHA2 161115Z 21008KT 00/M03 A301 RMK A01 T00021025  RH  083%=      5-min Rain = 0
KHA2 161116Z 21008KT 00/M03 A301 RMK A01 T00011025  RH  083%=      5-min Rain = 0
KHA2 161117Z 21008KT 00/M03 A301 RMK A01 T00011025  RH  083%=      5-min Rain = 0
KHA2 161118Z 21008KT 00/M03 A301 RMK A01 T00011025  RH  083%=      5-min Rain = 0
KHA2 161119Z 21008KT 00/M03 A301 RMK A01 T00011025  RH  083%=      5-min Rain = 0
KHA2 161120Z 21008KT 00/03 A301 RMK A01 T00000-25  RH  083%=      5-min Rain = 0
KHA2 161121Z 21008KT 00/M03 A301 RMK A01 T00011025  RH  083%=      5-min Rain = 0
KHA2 161122Z 21008KT 00/M02 A301 RMK A01 T00021024  RH  083%=      5-min Rain = 0
KHA2 161123Z 21008KT 00/M02 A301 RMK A01 T00021024  RH  082%=      5-min Rain = 0
KHA2 161124Z 21009KT 00/M02 A301 RMK A01 T00021024  RH  082%=      5-min Rain = 0
KHA2 161125Z 21009KT 00/M03 A301 RMK A01 T00031025  RH  082%=      5-min Rain = 0
KHA2 161126Z 21009KT 00/M02 A301 RMK A01 T00031024  RH  082%=      5-min Rain = 0
KHA2 161127Z 21009KT 00/M02 A301 RMK A01 T00041023  RH  082%=      5-min Rain = 0
KHA2 161128Z 21009KT 01/M02 A301 RMK A01 T00051022  RH  082%=      5-min Rain = 0
KHA2 161129Z 21009KT 01/M02 A301 RMK A01 T00061022  RH  082%=      5-min Rain = 0
KHA2 161130Z 22008KT 01/M02 A301 RMK A01 T00071021  RH  082%=      5-min Rain = 0
KHA2 161131Z 22008KT 01/M02 A301 RMK A01 T00071021  RH  081%=      5-min Rain = 0
KHA2 161132Z 22008KT 01/M02 A301 RMK A01 T00081021  RH  081%=      5-min Rain = 0
KHA2 161133Z 22008KT 01/M02 A301 RMK A01 T00081021  RH  081%=      5-min Rain = 0
KHA2 161134Z 22008KT 01/M02 A301 RMK A01 T00081021  RH  081%=      5-min Rain = 0
KHA2 161135Z 22008KT 01/M02 A301 RMK A01 T00081021  RH  081%=      5-min Rain = 0
KHA2 161136Z 22008KT 01/M02 A301 RMK A01 T00081022  RH  081%=      5-min Rain = 0
KHA2 161137Z 22008KT 01/M02 A301 RMK A01 T00081021  RH  081%=      5-min Rain = 0
KHA2 161138Z 22008KT 01/M02 A301 RMK A01 T00081021  RH  081%=      5-min Rain = 0
KHA2 161139Z 22009KT 01/M02 A301 RMK A01 T00081021  RH  081%=      5-min Rain = 0
KHA2 161140Z 22008KT 01/M02 A301 RMK A01 T00081022  RH  081%=      5-min Rain = 0
KHA2 161141Z 22008KT 01/M02 A301 RMK A01 T00081022  RH  081%=      5-min Rain = 0
KHA2 161142Z 22008KT 01/M02 A301 RMK A01 T00081021  RH  081%=      5-min Rain = 0
KHA2 161143Z 22008KT 01/M02 A301 RMK A01 T00071021  RH  081%=      5-min Rain = 0
KHA2 161144Z 22009KT 01/M02 A301 RMK A01 T00081021  RH  081%=      5-min Rain = 0
KHA2 161145Z 22009KT 01/M02 A301 RMK A01 T00081021  RH  081%=      5-min Rain = 0
KHA2 161146Z 21009KT 01/M02 A301 RMK A01 T00071022  RH  081%=      5-min Rain = 0
KHA2 161147Z 22009KT 01/M02 A301 RMK A01 T00071022  RH  081%=      5-min Rain = 0
KHA2 161148Z 22009KT 01/M02 A301 RMK A01 T00071022  RH  081%=      5-min Rain = 0
KHA2 161149Z 22010KT 01/M02 A301 RMK A01 T00061023  RH  081%=      5-min Rain = 0
KHA2 161150Z 22010KT 01/M02 A301 RMK A01 T00061023  RH  081%=      5-min Rain = 0
KHA2 161151Z 22009KT 01/M02 A301 RMK A01 T00061023  RH  081%=      5-min Rain = 0
KHA2 161152Z 22009KT 01/M02 A301 RMK A01 T00061023  RH  081%=      5-min Rain = 0
KHA2 161153Z 22009KT 01/M02 A301 RMK A01 T00061023  RH  081%=      5-min Rain = 0
KHA2 161154Z 22009KT 01/M02 A301 RMK A01 T00061023  RH  081%=      5-min Rain = 0
KHA2 161155Z 22009KT 01/M02 A301 RMK A01 T00061022  RH  081%=      5-min Rain = 0
KHA2 161156Z 23009KT 01/M02 A301 RMK A01 T00051023  RH  081%=      5-min Rain = 0
KHA2 161157Z 23008KT 01/M02 A301 RMK A01 T00051023  RH  082%=      5-min Rain = 0
KHA2 161158Z 23008KT 01/M02 A301 RMK A01 T00051023  RH  082%=      5-min Rain = 0
KHA2 161159Z 23008KT 01/M02 A301 RMK A01 T00051023  RH  082%=      5-min Rain = 0
KHA2 161200Z 23008KT 01/M02 A301 RMK A01 T00051023  RH  082%=      5-min Rain = 0
KHA2 161201Z 23008KT 00/M02 A301 RMK A01 T00041024  RH  082%=      5-min Rain = 0
KHA2 161202Z 23009KT 00/M02 A301 RMK A01 T00031024  RH  082%=      5-min Rain = 0
KHA2 161203Z 23008KT 00/M02 A301 RMK A01 T00041024  RH  082%=      5-min Rain = 0
KHA2 161204Z 23008KT 00/M02 A301 RMK A01 T00031024  RH  082%=      5-min Rain = 0
KHA2 161205Z 22009KT 00/M02 A301 RMK A01 T00031024  RH  082%=      5-min Rain = 0
KHA2 161206Z 22010KT 00/M02 A301 RMK A01 T00031024  RH  082%=      5-min Rain = 0
KHA2 161207Z 22010KT 00/M02 A301 RMK A01 T00031023  RH  082%=      5-min Rain = 0
KHA2 161208Z 22010KT 00/M02 A301 RMK A01 T00041022  RH  082%=      5-min Rain = 0
KHA2 161209Z 22010KT 01/M02 A301 RMK A01 T00051022  RH  082%=      5-min Rain = 0
KHA2 161210Z 22010KT 01/M02 A301 RMK A01 T00061021  RH  082%=      5-min Rain = 0
KHA2 161211Z 22010KT 01/M02 A301 RMK A01 T00071021  RH  082%=      5-min Rain = 0
KHA2 161212Z 22010KT 01/M02 A301 RMK A01 T00071021  RH  082%=      5-min Rain = 0
KHA2 161213Z 22009KT 01/M02 A3009 RMK A01 T00071021  RH  081%=      5-min Rain = 0
KHA2 161214Z 22009KT 01/M02 A3009 RMK A01 T00071021  RH  081%=      5-min Rain = 0
KHA2 161215Z 22009KT 01/M02 A3009 RMK A01 T00071021  RH  081%=      5-min Rain = 0
KHA2 161216Z 22009KT 01/M02 A3009 RMK A01 T00071021  RH  081%=      5-min Rain = 0
KHA2 161217Z 22009KT 01/M02 A3009 RMK A01 T00071021  RH  081%=      5-min Rain = 0
KHA2 161218Z 22009KT 01/M02 A3009 RMK A01 T00071021  RH  081%=      5-min Rain = 0
KHA2 161219Z 22010KT 01/M02 A3009 RMK A01 T00061022  RH  081%=      5-min Rain = 0
KHA2 161220Z 22009KT 01/M02 A3009 RMK A01 T00061022  RH  081%=      5-min Rain = 0
KHA2 161221Z 22009KT 01/M02 A3009 RMK A01 T00061022  RH  081%=      5-min Rain = 0
KHA2 161222Z 22010KT 01/M02 A3009 RMK A01 T00061022  RH  081%=      5-min Rain = 0
KHA2 161223Z 22010KT 01/M02 A3009 RMK A01 T00061022  RH  081%=      5-min Rain = 0
KHA2 161224Z 22010KT 01/M02 A3009 RMK A01 T00061022  RH  082%=      5-min Rain = 0
KHA2 161225Z 22010KT 01/M02 A3009 RMK A01 T00071021  RH  082%=      5-min Rain = 0
KHA2 161226Z 23010KT 01/M02 A3009 RMK A01 T00071021  RH  081%=      5-min Rain = 0
KHA2 161227Z 23009KT 01/M02 A3009 RMK A01 T00071021  RH  081%=      5-min Rain = 0
KHA2 161228Z 22009KT 01/M02 A3009 RMK A01 T00071021  RH  081%=      5-min Rain = 0
KHA2 161229Z 22009KT 01/M02 A3009 RMK A01 T00071022  RH  081%=      5-min Rain = 0
KHA2 161230Z 22009KT 01/M02 A3009 RMK A01 T00071021  RH  081%=      5-min Rain = 0
KHA2 161231Z 22009KT 01/M02 A3009 RMK A01 T00071022  RH  081%=      5-min Rain = 0
KHA2 161232Z 22010KT 01/M02 A3009 RMK A01 T00061022  RH  081%=      5-min Rain = 0
KHA2 161233Z 22009KT 01/M02 A3009 RMK A01 T00051023  RH  081%=      5-min Rain = 0
KHA2 161234Z 22009KT 01/M02 A3009 RMK A01 T00051022  RH  082%=      5-min Rain = 0
KHA2 161235Z 22009KT 01/M02 A3009 RMK A01 T00051023  RH  082%=      5-min Rain = 0
KHA2 161236Z 22009KT 01/M02 A3009 RMK A01 T00051023  RH  082%=      5-min Rain = 0
KHA2 161237Z 23009KT 00/M02 A3009 RMK A01 T00041023  RH  082%=      5-min Rain = 0
KHA2 161238Z 23009KT 00/M02 A3009 RMK A01 T00041023  RH  082%=      5-min Rain = 0
KHA2 161239Z 23009KT 00/M02 A3009 RMK A01 T00031024  RH  082%=      5-min Rain = 0
KHA2 161240Z 23009KT 00/M02 A3009 RMK A01 T00031023  RH  083%=      5-min Rain = 0
KHA2 161241Z 23009KT 00/M02 A3009 RMK A01 T00031023  RH  083%=      5-min Rain = 0
KHA2 161242Z 23010KT 00/M02 A3009 RMK A01 T00031023  RH  083%=      5-min Rain = 0
KHA2 161243Z 23009KT 00/M02 A3009 RMK A01 T00031022  RH  083%=      5-min Rain = 0
KHA2 161244Z 23010KT 00/M02 A3009 RMK A01 T00041022  RH  083%=      5-min Rain = 0
KHA2 161245Z 23009KT 00/M02 A3009 RMK A01 T00041022  RH  083%=      5-min Rain = 0
KHA2 161246Z 23009KT 00/M02 A3009 RMK A01 T00041021  RH  083%=      5-min Rain = 0
KHA2 161247Z 23009KT 00/M02 A3009 RMK A01 T00041022  RH  083%=      5-min Rain = 0
KHA2 161248Z 23009KT 01/M02 A3009 RMK A01 T00051021  RH  083%=      5-min Rain = 0
KHA2 161249Z 23010KT 00/M02 A3009 RMK A01 T00041021  RH  083%=      5-min Rain = 0
KHA2 161250Z 23009KT 01/M02 A3009 RMK A01 T00051020  RH  083%=      5-min Rain = 0
KHA2 161251Z 23009KT 01/M02 A3009 RMK A01 T00051021  RH  083%=      5-min Rain = 0
KHA2 161252Z 23009KT 01/M02 A3009 RMK A01 T00051021  RH  083%=      5-min Rain = 0
KHA2 161253Z 23009KT 01/M02 A3009 RMK A01 T00051020  RH  083%=      5-min Rain = 0
KHA2 161254Z 23009KT 01/M02 A3009 RMK A01 T00061020  RH  083%=      5-min Rain = 0
KHA2 161255Z 23010KT 01/M02 A3009 RMK A01 T00061020  RH  083%=      5-min Rain = 0
KHA2 161256Z 23010KT 01/M02 A3009 RMK A01 T00061020  RH  083%=      5-min Rain = 0
KHA2 161257Z 23009KT 01/M02 A3009 RMK A01 T00061020  RH  083%=      5-min Rain = 0
KHA2 161258Z 23010KT 01/M02 A3009 RMK A01 T00061019  RH  083%=      5-min Rain = 0
KHA2 161259Z 23009KT 01/M02 A3009 RMK A01 T00071019  RH  083%=      5-min Rain = 0
KHA2 161300Z 23009KT 01/M02 A3009 RMK A01 T00071019  RH  083%=      5-min Rain = 0
KHA2 161301Z 24009KT 01/M02 A3009 RMK A01 T00071019  RH  082%=      5-min Rain = 0
KHA2 161302Z 24008KT 01/M02 A3009 RMK A01 T00071019  RH  083%=      5-min Rain = 0
KHA2 161303Z 24008KT 01/M02 A3009 RMK A01 T00071020  RH  083%=      5-min Rain = 0
KHA2 161304Z 24008KT 01/M02 A3009 RMK A01 T00061020  RH  083%=      5-min Rain = 0
KHA2 161305Z 24008KT 01/M02 A3009 RMK A01 T00051021  RH  083%=      5-min Rain = 0
KHA2 161306Z 24009KT 01/M02 A3009 RMK A01 T00051020  RH  083%=      5-min Rain = 0
KHA2 161307Z 24007KT 01/M02 A3009 RMK A01 T00051020  RH  083%=      5-min Rain = 0
KHA2 161308Z 24008KT 01/M02 A3009 RMK A01 T00061020  RH  083%=      5-min Rain = 0
KHA2 161309Z 24007KT 01/M02 A3009 RMK A01 T00051021  RH  083%=      5-min Rain = 0
KHA2 161310Z 24008KT 01/M02 A3009 RMK A01 T00051021  RH  083%=      5-min Rain = 0
KHA2 161311Z 24008KT 01/M02 A3009 RMK A01 T00051020  RH  083%=      5-min Rain = 0
KHA2 161312Z 24008KT 01/M02 A3009 RMK A01 T00051020  RH  083%=      5-min Rain = 0
KHA2 161313Z 24007KT 01/M02 A3009 RMK A01 T00051020  RH  083%=      5-min Rain = 0
KHA2 161314Z 24007KT 01/M02 A3009 RMK A01 T00051020  RH  083%=      5-min Rain = 0
KHA2 161315Z 24007KT 01/M02 A3009 RMK A01 T00051020  RH  084%=      5-min Rain = 0
KHA2 161316Z 24007KT 01/M02 A3009 RMK A01 T00051020  RH  084%=      5-min Rain = 0
KHA2 161317Z 24007KT 01/M02 A3009 RMK A01 T00051019  RH  084%=      5-min Rain = 0
KHA2 161318Z 24007KT 01/M02 A301 RMK A01 T00061019  RH  084%=      5-min Rain = 0
KHA2 161319Z 24007KT 01/M02 A301 RMK A01 T00061019  RH  084%=      5-min Rain = 0
KHA2 161320Z 24007KT 01/M02 A301 RMK A01 T00061019  RH  084%=      5-min Rain = 0
KHA2 161321Z 25007KT 01/M02 A301 RMK A01 T00061019  RH  084%=      5-min Rain = 0
KHA2 161322Z 25007KT 01/M02 A301 RMK A01 T00061019  RH  084%=      5-min Rain = 0
KHA2 161323Z 24006KT 01/M02 A301 RMK A01 T00061019  RH  084%=      5-min Rain = 0
KHA2 161324Z 24006KT 01/M02 A301 RMK A01 T00071018  RH  083%=      5-min Rain = 0
KHA2 161325Z 24007KT 01/M02 A301 RMK A01 T00071018  RH  083%=      5-min Rain = 0
KHA2 161326Z 24006KT 01/M02 A301 RMK A01 T00071018  RH  083%=      5-min Rain = 0
KHA2 161327Z 23007KT 01/M02 A301 RMK A01 T00071018  RH  083%=      5-min Rain = 0
KHA2 161328Z 23007KT 01/M02 A301 RMK A01 T00061019  RH  083%=      5-min Rain = 0
KHA2 161329Z 23007KT 01/M02 A301 RMK A01 T00061019  RH  084%=      5-min Rain = 0
KHA2 161330Z 23007KT 01/M02 A301 RMK A01 T00061019  RH  084%=      5-min Rain = 0
KHA2 161331Z 23007KT 01/M02 A301 RMK A01 T00051019  RH  084%=      5-min Rain = 0
KHA2 161332Z 23007KT 01/M02 A301 RMK A01 T00051019  RH  084%=      5-min Rain = 0
KHA2 161333Z 23007KT 01/M02 A3009 RMK A01 T00051019  RH  084%=      5-min Rain = 0
KHA2 161334Z 23007KT 01/M02 A3009 RMK A01 T00051019  RH  084%=      5-min Rain = 0
KHA2 161335Z 23007KT 00/M02 A3009 RMK A01 T00041019  RH  084%=      5-min Rain = 0
KHA2 161336Z 23007KT 00/M02 A3009 RMK A01 T00041019  RH  084%=      5-min Rain = 0
KHA2 161337Z 23007KT 00/M02 A3009 RMK A01 T00041018  RH  085%=      5-min Rain = 0
KHA2 161338Z 23007KT 00/M02 A3009 RMK A01 T00041018  RH  085%=      5-min Rain = 0
KHA2 161339Z 23007KT 00/M02 A3009 RMK A01 T00041018  RH  085%=      5-min Rain = 0
KHA2 161340Z 23006KT 01/M02 A3009 RMK A01 T00051018  RH  085%=      5-min Rain = 0
KHA2 161341Z 23006KT 01/M02 A3009 RMK A01 T00061017  RH  085%=      5-min Rain = 0
KHA2 161342Z 23006KT 01/M02 A3009 RMK A01 T00061017  RH  085%=      5-min Rain = 0
KHA2 161343Z 23006KT 01/M02 A3009 RMK A01 T00061017  RH  084%=      5-min Rain = 0
KHA2 161344Z 23006KT 01/M02 A3009 RMK A01 T00071017  RH  084%=      5-min Rain = 0
KHA2 161345Z 23005KT 01/M02 A3009 RMK A01 T00071017  RH  084%=      5-min Rain = 0
KHA2 161346Z 23006KT 01/M02 A3009 RMK A01 T00071016  RH  084%=      5-min Rain = 0
KHA2 161347Z 23005KT 01/M02 A3009 RMK A01 T00081016  RH  084%=      5-min Rain = 0
KHA2 161348Z 23005KT 01/M02 A3009 RMK A01 T00081016  RH  084%=      5-min Rain = 0
KHA2 161349Z 23005KT 01/M02 A3009 RMK A01 T00091015  RH  084%=      5-min Rain = 0
KHA2 161350Z 23005KT 01/M02 A3009 RMK A01 T00091015  RH  084%=      5-min Rain = 0
KHA2 161351Z 23004KT 01/M02 A3009 RMK A01 T00101015  RH  084%=      5-min Rain = 0
KHA2 161352Z 23004KT 01/M01 A3009 RMK A01 T00101014  RH  084%=      5-min Rain = 0
KHA2 161353Z 23004KT 01/M01 A3009 RMK A01 T00101014  RH  084%=      5-min Rain = 0
KHA2 161354Z 23004KT 01/M01 A3009 RMK A01 T00111013  RH  084%=      5-min Rain = 0
KHA2 161355Z 23005KT 01/M01 A301 RMK A01 T00111013  RH  084%=      5-min Rain = 0
KHA2 161356Z 23005KT 01/M01 A301 RMK A01 T00121012  RH  084%=      5-min Rain = 0
KHA2 161357Z 22006KT 01/M01 A3009 RMK A01 T00141010  RH  084%=      5-min Rain = 0
KHA2 161358Z 22006KT 02/M01 A3009 RMK A01 T00161009  RH  083%=      5-min Rain = 0
KHA2 161359Z 22007KT 02/M01 A3009 RMK A01 T00171009  RH  083%=      5-min Rain = 0
KHA2 161400Z 22007KT 02/M01 A3009 RMK A01 T00181009  RH  082%=      5-min Rain = 0
KHA2 161401Z 22007KT 02/M01 A3009 RMK A01 T00191009  RH  082%=      5-min Rain = 0
KHA2 161402Z 22007KT 02/M01 A3009 RMK A01 T00191009  RH  081%=      5-min Rain = 0
KHA2 161403Z 22007KT 02/M01 A3009 RMK A01 T00201009  RH  081%=      5-min Rain = 0
KHA2 161404Z 22007KT 02/M01 A3009 RMK A01 T00211009  RH  081%=      5-min Rain = 0
KHA2 161405Z 22008KT 02/M01 A3009 RMK A01 T00211009  RH  081%=      5-min Rain = 0
KHA2 161406Z 22008KT 02/M01 A3009 RMK A01 T00211009  RH  081%=      5-min Rain = 0
KHA2 161407Z 22007KT 02/M01 A3009 RMK A01 T00221009  RH  080%=      5-min Rain = 0
KHA2 161408Z 21008KT 02/M01 A3009 RMK A01 T00221008  RH  080%=      5-min Rain = 0
KHA2 161409Z 22008KT 02/M01 A3009 RMK A01 T00231008  RH  080%=      5-min Rain = 0
KHA2 161410Z 22009KT 02/M01 A3009 RMK A01 T00231008  RH  080%=      5-min Rain = 0
KHA2 161411Z 22009KT 02/M01 A3009 RMK A01 T00231008  RH  080%=      5-min Rain = 0
KHA2 161412Z 22009KT 02/M01 A3009 RMK A01 T00241008  RH  080%=      5-min Rain = 0
KHA2 161413Z 22008KT 02/M01 A3009 RMK A01 T00241008  RH  079%=      5-min Rain = 0
KHA2 161414Z 22009KT 03/M01 A3009 RMK A01 T00251008  RH  079%=      5-min Rain = 0
KHA2 161415Z 21009KT 03/M01 A3009 RMK A01 T00251007  RH  079%=      5-min Rain = 0
KHA2 161416Z 21009KT 03/M01 A3009 RMK A01 T00251007  RH  079%=      5-min Rain = 0
KHA2 161417Z 21009KT 03/M01 A3009 RMK A01 T00261007  RH  079%=      5-min Rain = 0
KHA2 161418Z 22009KT 03/M01 A3009 RMK A01 T00261006  RH  079%=      5-min Rain = 0
KHA2 161419Z 21009KT 03/M01 A3009 RMK A01 T00271006  RH  079%=      5-min Rain = 0
KHA2 161420Z 21008KT 03/M01 A3009 RMK A01 T00271005  RH  079%=      5-min Rain = 0
KHA2 161421Z 21009KT 03/M01 A3009 RMK A01 T00281005  RH  079%=      5-min Rain = 0
KHA2 161422Z 21009KT 03/M00 A3009 RMK A01 T00291004  RH  079%=      5-min Rain = 0
KHA2 161423Z 21009KT 03/M00 A3009 RMK A01 T00301004  RH  078%=      5-min Rain = 0
KHA2 161424Z 21010KT 03/M00 A3009 RMK A01 T00311003  RH  078%=      5-min Rain = 0
KHA2 161425Z 21009KT 03/M00 A3009 RMK A01 T00311004  RH  078%=      5-min Rain = 0
KHA2 161426Z 21010KT 03/M00 A3009 RMK A01 T00321003  RH  078%=      5-min Rain = 0
KHA2 161427Z 21010KT 03/M00 A3009 RMK A01 T00331003  RH  078%=      5-min Rain = 0
KHA2 161428Z 21011KT 03/M00 A3009 RMK A01 T00341002  RH  077%=      5-min Rain = 0
KHA2 161429Z 21010KT 04/M00 A3009 RMK A01 T00351002  RH  077%=      5-min Rain = 0
KHA2 161430Z 21011KT 04/M00 A3009 RMK A01 T00361001  RH  077%=      5-min Rain = 0
KHA2 161431Z 21011KT 04/M00 A3009 RMK A01 T00371001  RH  077%=      5-min Rain = 0
KHA2 161432Z 21012KT 04/M00 A3009 RMK A01 T00381001  RH  076%=      5-min Rain = 0
KHA2 161433Z 21012KT 04/M00 A3009 RMK A01 T00381001  RH  076%=      5-min Rain = 0
KHA2 161434Z 22012KT 04/00 A3009 RMK A01 T00400000  RH  075%=      5-min Rain = 0
KHA2 161435Z 22012G17KT 04/00 A3009 RMK A01 T00400001  RH  075%=      5-min Rain = 0
KHA2 161436Z 21012KT 04/00 A3009 RMK A01 T00410001  RH  075%=      5-min Rain = 0
KHA2 161437Z 22012KT 04/00 A3009 RMK A01 T00410001  RH  075%=      5-min Rain = 0
KHA2 161438Z 21012KT 04/00 A3009 RMK A01 T00420002  RH  075%=      5-min Rain = 0
KHA2 161439Z 22013KT 04/00 A3009 RMK A01 T00430001  RH  074%=      5-min Rain = 0
KHA2 161440Z 22012KT 04/00 A3009 RMK A01 T00440002  RH  074%=      5-min Rain = 0
KHA2 161441Z 22012KT 05/00 A3009 RMK A01 T00450002  RH  074%=      5-min Rain = 0
KHA2 161442Z 22011KT 05/00 A3009 RMK A01 T00460003  RH  074%=      5-min Rain = 0
KHA2 161443Z 22014KT 05/00 A3009 RMK A01 T00470003  RH  073%=      5-min Rain = 0
KHA2 161444Z 21013KT 05/00 A3009 RMK A01 T00470003  RH  073%=      5-min Rain = 0
KHA2 161445Z 22014KT 05/00 A3009 RMK A01 T00480004  RH  073%=      5-min Rain = 0
KHA2 161446Z 21013KT 05/00 A3009 RMK A01 T00490004  RH  072%=      5-min Rain = 0
KHA2 161447Z 21012KT 05/01 A3009 RMK A01 T00500005  RH  072%=      5-min Rain = 0
KHA2 161448Z 21012KT 05/01 A3009 RMK A01 T00510005  RH  072%=      5-min Rain = 0
KHA2 161449Z 21013KT 05/01 A3009 RMK A01 T00520006  RH  072%=      5-min Rain = 0
KHA2 161450Z 22013KT 05/01 A3009 RMK A01 T00540007  RH  072%=      5-min Rain = 0
KHA2 161451Z 22013KT 05/01 A3009 RMK A01 T00540007  RH  071%=      5-min Rain = 0
KHA2 161452Z 21015KT 06/01 A3009 RMK A01 T00560007  RH  071%=      5-min Rain = 0
KHA2 161453Z 22015KT 06/01 A3009 RMK A01 T00570007  RH  070%=      5-min Rain = 0
KHA2 161454Z 22016KT 06/01 A3009 RMK A01 T00570006  RH  070%=      5-min Rain = 0
KHA2 161455Z 22014KT 06/01 A3009 RMK A01 T00580007  RH  070%=      5-min Rain = 0
KHA2 161456Z 22015KT 06/01 A3009 RMK A01 T00590007  RH  069%=      5-min Rain = 0
KHA2 161457Z 22015KT 06/01 A3009 RMK A01 T00600008  RH  069%=      5-min Rain = 0
KHA2 161458Z 21015KT 06/01 A3009 RMK A01 T00620009  RH  069%=      5-min Rain = 0
KHA2 161459Z 22014KT 06/01 A3009 RMK A01 T00640009  RH  068%=      5-min Rain = 0
KHA2 161500Z 22013KT 07/01 A3009 RMK A01 T00650010  RH  068%=      5-min Rain = 0
KHA2 161501Z 22015KT 07/01 A3009 RMK A01 T00670010  RH  067%=      5-min Rain = 0
KHA2 161502Z 21014KT 07/01 A3009 RMK A01 T00690011  RH  066%=      5-min Rain = 0
KHA2 161503Z 21015KT 07/01 A3008 RMK A01 T00700011  RH  066%=      5-min Rain = 0
KHA2 161504Z 22016KT 07/01 A3008 RMK A01 T00710010  RH  065%=      5-min Rain = 0
KHA2 161505Z 22015KT 07/01 A3008 RMK A01 T00700009  RH  065%=      5-min Rain = 0
KHA2 161506Z 22014KT 07/01 A3008 RMK A01 T00720011  RH  065%=      5-min Rain = 0
KHA2 161507Z 22017KT 07/01 A3008 RMK A01 T00730011  RH  064%=      5-min Rain = 0
KHA2 161508Z 22017KT 07/01 A3008 RMK A01 T00730009  RH  064%=      5-min Rain = 0
KHA2 161509Z 22016KT 07/01 A3008 RMK A01 T00720008  RH  064%=      5-min Rain = 0
KHA2 161510Z 22015KT 07/01 A3008 RMK A01 T00710008  RH  064%=      5-min Rain = 0
KHA2 161511Z 22016KT 07/01 A3008 RMK A01 T00710008  RH  064%=      5-min Rain = 0
KHA2 161512Z 22014KT 07/01 A3008 RMK A01 T00710009  RH  065%=      5-min Rain = 0
KHA2 161513Z 22014KT 07/01 A3008 RMK A01 T00720009  RH  064%=      5-min Rain = 0
KHA2 161514Z 22014KT 07/01 A3008 RMK A01 T00720009  RH  064%=      5-min Rain = 0
KHA2 161515Z 22015KT 07/01 A3008 RMK A01 T00730010  RH  064%=      5-min Rain = 0
KHA2 161516Z 22015KT 07/01 A3008 RMK A01 T00730009  RH  064%=      5-min Rain = 0
KHA2 161517Z 22016KT 07/01 A3008 RMK A01 T00730009  RH  064%=      5-min Rain = 0
KHA2 161518Z 22014KT 07/01 A3008 RMK A01 T00740009  RH  063%=      5-min Rain = 0
KHA2 161519Z 22016KT 08/01 A3008 RMK A01 T00770012  RH  063%=      5-min Rain = 0
KHA2 161520Z 22014KT 08/01 A3008 RMK A01 T00770010  RH  063%=      5-min Rain = 0
KHA2 161521Z 22015KT 08/01 A3008 RMK A01 T00790012  RH  063%=      5-min Rain = 0
KHA2 161522Z 22014KT 08/01 A3008 RMK A01 T00790011  RH  062%=      5-min Rain = 0
KHA2 161523Z 22014KT 08/02 A3008 RMK A01 T00820015  RH  062%=      5-min Rain = 0
KHA2 161524Z 22016KT 08/01 A3008 RMK A01 T00840014  RH  061%=      5-min Rain = 0
KHA2 161525Z 22017KT 09/01 A3008 RMK A01 T00850013  RH  060%=      5-min Rain = 0
KHA2 161526Z 22015KT 09/01 A3008 RMK A01 T00850012  RH  060%=      5-min Rain = 0
KHA2 161527Z 21014KT 09/02 A3008 RMK A01 T00860015  RH  061%=      5-min Rain = 0
KHA2 161528Z 21017KT 09/02 A3008 RMK A01 T00900015  RH  060%=      5-min Rain = 0
KHA2 161529Z 22018KT 09/01 A3008 RMK A01 T00900013  RH  058%=      5-min Rain = 0
KHA2 161530Z 22017KT 09/01 A3008 RMK A01 T00910013  RH  058%=      5-min Rain = 0
KHA2 161531Z 22018KT 09/01 A3008 RMK A01 T00920013  RH  057%=      5-min Rain = 0
KHA2 161532Z 22017KT 09/01 A3008 RMK A01 T00930013  RH  057%=      5-min Rain = 0
KHA2 161533Z 22017KT 09/01 A3008 RMK A01 T00940013  RH  057%=      5-min Rain = 0
KHA2 161534Z 22017KT 10/01 A3007 RMK A01 T00960013  RH  056%=      5-min Rain = 0
KHA2 161535Z 22014KT 10/01 A3007 RMK A01 T00970014  RH  056%=      5-min Rain = 0
KHA2 161536Z 22016KT 10/02 A3007 RMK A01 T00990015  RH  056%=      5-min Rain = 0
KHA2 161537Z 22015KT 10/02 A3007 RMK A01 T01000016  RH  056%=      5-min Rain = 0
KHA2 161538Z 21015KT 10/02 A3007 RMK A01 T01010015  RH  055%=      5-min Rain = 0
KHA2 161539Z 21015KT 10/02 A3007 RMK A01 T01020016  RH  055%=      5-min Rain = 0
KHA2 161540Z 21015KT 10/02 A3007 RMK A01 T01040016  RH  054%=      5-min Rain = 0
KHA2 161541Z 22015KT 11/02 A3007 RMK A01 T01060016  RH  054%=      5-min Rain = 0
KHA2 161542Z 21014KT 11/02 A3007 RMK A01 T01090018  RH  053%=      5-min Rain = 0
KHA2 161543Z 21015KT 11/02 A3007 RMK A01 T01120018  RH  052%=      5-min Rain = 0
KHA2 161544Z 21015KT 11/02 A3007 RMK A01 T01120017  RH  052%=      5-min Rain = 0
KHA2 161545Z 21015KT 11/02 A3007 RMK A01 T01120017  RH  052%=      5-min Rain = 0
KHA2 161546Z 21016KT 11/02 A3007 RMK A01 T01130018  RH  052%=      5-min Rain = 0
KHA2 161547Z 21017KT 11/02 A3007 RMK A01 T01140016  RH  051%=      5-min Rain = 0
KHA2 161548Z 21017KT 11/02 A3007 RMK A01 T01130015  RH  051%=      5-min Rain = 0
KHA2 161549Z 21016KT 11/02 A3007 RMK A01 T01130015  RH  051%=      5-min Rain = 0
KHA2 161550Z 21017KT 11/01 A3007 RMK A01 T01130014  RH  050%=      5-min Rain = 0
KHA2 161551Z 21017KT 11/01 A3007 RMK A01 T01120014  RH  051%=      5-min Rain = 0
KHA2 161552Z 21016KT 11/01 A3007 RMK A01 T01120014  RH  051%=      5-min Rain = 0
KHA2 161553Z 21017KT 11/01 A3007 RMK A01 T01120014  RH  051%=      5-min Rain = 0
KHA2 161554Z 21017KT 11/01 A3007 RMK A01 T01130013  RH  050%=      5-min Rain = 0
KHA2 161555Z 21016KT 12/01 A3007 RMK A01 T01150014  RH  050%=      5-min Rain = 0
KHA2 161556Z 21015KT 12/01 A3007 RMK A01 T01160014  RH  050%=      5-min Rain = 0
KHA2 161557Z 21017KT 12/01 A3007 RMK A01 T01190014  RH  049%=      5-min Rain = 0
KHA2 161558Z 21019KT 12/01 A3007 RMK A01 T01190011  RH  047%=      5-min Rain = 0
KHA2 161559Z 21017KT 12/01 A3007 RMK A01 T01180008  RH  047%=      5-min Rain = 0
KHA2 161600Z 22017KT 12/01 A3007 RMK A01 T01180008  RH  047%=      5-min Rain = 0
KHA2 161601Z 21016KT 12/01 A3007 RMK A01 T01190009  RH  047%=      5-min Rain = 0
KHA2 161602Z 21014KT 12/01 A3007 RMK A01 T01190011  RH  047%=      5-min Rain = 0
KHA2 161603Z 22017KT 12/01 A3007 RMK A01 T01210012  RH  047%=      5-min Rain = 0
KHA2 161604Z 22015KT 12/01 A3008 RMK A01 T01210009  RH  046%=      5-min Rain = 0
KHA2 161605Z 21016KT 12/01 A3007 RMK A01 T01200010  RH  047%=      5-min Rain = 0
KHA2 161606Z 21015KT 12/01 A3007 RMK A01 T01200009  RH  046%=      5-min Rain = 0
KHA2 161607Z 21014KT 12/01 A3007 RMK A01 T01190009  RH  047%=      5-min Rain = 0
KHA2 161608Z 22014KT 12/01 A3007 RMK A01 T01200010  RH  047%=      5-min Rain = 0
KHA2 161609Z 21015KT 12/01 A3007 RMK A01 T01210009  RH  046%=      5-min Rain = 0
KHA2 161610Z 21016KT 12/01 A3007 RMK A01 T01210008  RH  046%=      5-min Rain = 0
KHA2 161611Z 21017KT 12/01 A3007 RMK A01 T01220007  RH  045%=      5-min Rain = 0
KHA2 161612Z 22017KT 12/01 A3007 RMK A01 T01220005  RH  045%=      5-min Rain = 0
KHA2 161613Z 22017KT 12/01 A3007 RMK A01 T01220006  RH  045%=      5-min Rain = 0
KHA2 161614Z 22016KT 12/01 A3007 RMK A01 T01220005  RH  045%=      5-min Rain = 0
KHA2 161615Z 22015KT 12/01 A3007 RMK A01 T01220007  RH  045%=      5-min Rain = 0
KHA2 161616Z 21017KT 12/01 A3007 RMK A01 T01220007  RH  045%=      5-min Rain = 0
KHA2 161617Z 21016KT 12/01 A3007 RMK A01 T01240008  RH  045%=      5-min Rain = 0
KHA2 161618Z 22014KT 13/01 A3007 RMK A01 T01260009  RH  045%=      5-min Rain = 0
KHA2 161619Z 21015KT 13/01 A3007 RMK A01 T01270009  RH  044%=      5-min Rain = 0
KHA2 161620Z 22014KT 13/01 A3007 RMK A01 T01270009  RH  044%=      5-min Rain = 0
KHA2 161621Z 22014KT 13/01 A3007 RMK A01 T01270009  RH  044%=      5-min Rain = 0
KHA2 161622Z 21012KT 13/01 A3007 RMK A01 T01270011  RH  045%=      5-min Rain = 0
KHA2 161623Z 21016KT 13/01 A3007 RMK A01 T01320014  RH  044%=      5-min Rain = 0
KHA2 161624Z 21017KT 13/01 A3007 RMK A01 T01320011  RH  043%=      5-min Rain = 0
KHA2 161625Z 21016KT 13/01 A3007 RMK A01 T01320010  RH  043%=      5-min Rain = 0
KHA2 161626Z 21014KT 13/01 A3007 RMK A01 T01320010  RH  043%=      5-min Rain = 0
KHA2 161627Z 21016KT 13/01 A3007 RMK A01 T01330011  RH  043%=      5-min Rain = 0
KHA2 161628Z 22015KT 13/01 A3007 RMK A01 T01330010  RH  043%=      5-min Rain = 0
KHA2 161629Z 22013KT 13/01 A3007 RMK A01 T01330012  RH  044%=      5-min Rain = 0
KHA2 161630Z 21014KT 14/01 A3007 RMK A01 T01350013  RH  044%=      5-min Rain = 0
KHA2 161631Z 21014KT 14/01 A3007 RMK A01 T01360013  RH  043%=      5-min Rain = 0
KHA2 161632Z 21015KT 14/01 A3006 RMK A01 T01370011  RH  042%=      5-min Rain = 0
KHA2 161633Z 21015KT 14/01 A3006 RMK A01 T01380011  RH  042%=      5-min Rain = 0
KHA2 161634Z 21015KT 14/01 A3006 RMK A01 T01380009  RH  041%=      5-min Rain = 0
KHA2 161635Z 21014KT 14/01 A3006 RMK A01 T01390009  RH  041%=      5-min Rain = 0
KHA2 161636Z 21016KT 14/01 A3006 RMK A01 T01390011  RH  041%=      5-min Rain = 0
KHA2 161637Z 22014KT 14/01 A3006 RMK A01 T01400010  RH  041%=      5-min Rain = 0
KHA2 161638Z 21015KT 14/01 A3006 RMK A01 T01400012  RH  042%=      5-min Rain = 0
KHA2 161639Z 21015KT 14/01 A3006 RMK A01 T01420012  RH  041%=      5-min Rain = 0
KHA2 161640Z 22016KT 14/01 A3006 RMK A01 T01430011  RH  041%=      5-min Rain = 0
KHA2 161641Z 21016KT 14/01 A3006 RMK A01 T01420011  RH  041%=      5-min Rain = 0
KHA2 161642Z 22013KT 14/01 A3006 RMK A01 T01420011  RH  041%=      5-min Rain = 0
KHA2 161643Z 22014KT 14/01 A3006 RMK A01 T01430013  RH  041%=      5-min Rain = 0
KHA2 161644Z 21012KT 14/01 A3006 RMK A01 T01430014  RH  042%=      5-min Rain = 0
KHA2 161645Z 20015KT 15/02 A3006 RMK A01 T01450015  RH  041%=      5-min Rain = 0
KHA2 161646Z 20014KT 15/01 A3006 RMK A01 T01450014  RH  041%=      5-min Rain = 0
KHA2 161647Z 21014KT 15/02 A3006 RMK A01 T01460015  RH  041%=      5-min Rain = 0
KHA2 161648Z 20014KT 15/02 A3006 RMK A01 T01470015  RH  041%=      5-min Rain = 0
KHA2 161649Z 20013KT 15/01 A3006 RMK A01 T01470014  RH  040%=      5-min Rain = 0
KHA2 161650Z 21014KT 15/02 A3006 RMK A01 T01490016  RH  040%=      5-min Rain = 0
KHA2 161651Z 21012KT 15/02 A3006 RMK A01 T01500015  RH  040%=      5-min Rain = 0
KHA2 161652Z 21014KT 15/02 A3006 RMK A01 T01510015  RH  040%=      5-min Rain = 0
KHA2 161653Z 20013KT 15/01 A3006 RMK A01 T01500014  RH  040%=      5-min Rain = 0
KHA2 161654Z 20016KT 15/02 A3006 RMK A01 T01520016  RH  040%=      5-min Rain = 0
KHA2 161655Z 21014KT 15/01 A3006 RMK A01 T01520013  RH  039%=      5-min Rain = 0
KHA2 161656Z 22013KT 15/02 A3006 RMK A01 T01520015  RH  039%=      5-min Rain = 0
KHA2 161657Z 22014KT 15/02 A3006 RMK A01 T01530015  RH  039%=      5-min Rain = 0
KHA2 161658Z 21015KT 15/01 A3006 RMK A01 T01540014  RH  039%=      5-min Rain = 0
KHA2 161659Z 22014KT 15/01 A3006 RMK A01 T01530013  RH  039%=      5-min Rain = 0
KHA2 161700Z 21013KT 15/01 A3006 RMK A01 T01510013  RH  039%=      5-min Rain = 0
KHA2 161701Z 20014KT 15/01 A3006 RMK A01 T01510014  RH  039%=      5-min Rain = 0
KHA2 161702Z 20015KT 15/01 A3006 RMK A01 T01510012  RH  039%=      5-min Rain = 0
KHA2 161703Z 21015KT 15/01 A3006 RMK A01 T01520013  RH  039%=      5-min Rain = 0
KHA2 161704Z 22015KT 15/01 A3006 RMK A01 T01520010  RH  038%=      5-min Rain = 0
KHA2 161705Z 22015KT 15/01 A3006 RMK A01 T01490008  RH  038%=      5-min Rain = 0
KHA2 161706Z 21013KT 15/01 A3006 RMK A01 T01500013  RH  039%=      5-min Rain = 0
KHA2 161707Z 21014KT 16/02 A3006 RMK A01 T01550016  RH  039%=      5-min Rain = 0
KHA2 161708Z 22014KT 16/01 A3006 RMK A01 T01560014  RH  038%=      5-min Rain = 0
KHA2 161709Z 21015KT 16/01 A3006 RMK A01 T01550013  RH  038%=      5-min Rain = 0
KHA2 161710Z 21015KT 15/01 A3006 RMK A01 T01530012  RH  038%=      5-min Rain = 0
KHA2 161711Z 21014KT 15/01 A3005 RMK A01 T01530013  RH  039%=      5-min Rain = 0
KHA2 161712Z 21014KT 15/01 A3005 RMK A01 T01530013  RH  039%=      5-min Rain = 0
KHA2 161713Z 22013KT 16/02 A3005 RMK A01 T01550015  RH  039%=      5-min Rain = 0
KHA2 161714Z 21015KT 16/02 A3005 RMK A01 T01570015  RH  038%=      5-min Rain = 0
KHA2 161715Z 21015KT 16/01 A3005 RMK A01 T01560012  RH  038%=      5-min Rain = 0
KHA2 161716Z 21014KT 16/02 A3005 RMK A01 T01550015  RH  039%=      5-min Rain = 0
KHA2 161717Z 21012KT 16/02 A3005 RMK A01 T01570017  RH  039%=      5-min Rain = 0
KHA2 161718Z 21013KT 16/02 A3005 RMK A01 T01570018  RH  039%=      5-min Rain = 0
KHA2 161719Z 22012KT 16/02 A3005 RMK A01 T01580017  RH  038%=      5-min Rain = 0
KHA2 161720Z 23015KT 16/02 A3005 RMK A01 T01590016  RH  038%=      5-min Rain = 0
KHA2 161721Z 22013G18KT 16/01 A3005 RMK A01 T01600014  RH  037%=      5-min Rain = 0
KHA2 161722Z 23015KT 16/02 A3005 RMK A01 T01610016  RH  037%=      5-min Rain = 0
KHA2 161723Z 22016KT 16/01 A3005 RMK A01 T01610012  RH  036%=      5-min Rain = 0
KHA2 161724Z 22015KT 16/01 A3005 RMK A01 T01590012  RH  037%=      5-min Rain = 0
KHA2 161725Z 22015KT 16/01 A3005 RMK A01 T01580010  RH  037%=      5-min Rain = 0
KHA2 161726Z 22015KT 16/01 A3005 RMK A01 T01570009  RH  037%=      5-min Rain = 0
KHA2 161727Z 21014KT 16/01 A3005 RMK A01 T01600013  RH  037%=      5-min Rain = 0
KHA2 161728Z 22016KT 16/01 A3005 RMK A01 T01620014  RH  037%=      5-min Rain = 0
KHA2 161729Z 22015KT 16/01 A3005 RMK A01 T01630012  RH  036%=      5-min Rain = 0
KHA2 161730Z 22016KT 16/01 A3005 RMK A01 T01630009  RH  035%=      5-min Rain = 0
KHA2 161731Z 22016KT 16/01 A3005 RMK A01 T01630009  RH  035%=      5-min Rain = 0
KHA2 161732Z 21016KT 16/01 A3005 RMK A01 T01620010  RH  036%=      5-min Rain = 0
KHA2 161733Z 22017KT 16/01 A3005 RMK A01 T01630009  RH  035%=      5-min Rain = 0
KHA2 161734Z 22015KT 16/01 A3005 RMK A01 T01640009  RH  035%=      5-min Rain = 0
KHA2 161735Z 22017KT 17/01 A3005 RMK A01 T01650009  RH  035%=      5-min Rain = 0
KHA2 161736Z 21017KT 16/01 A3005 RMK A01 T01640008  RH  035%=      5-min Rain = 0
KHA2 161737Z 21016KT 16/01 A3005 RMK A01 T01640009  RH  035%=      5-min Rain = 0
KHA2 161738Z 21016KT 17/01 A3004 RMK A01 T01650011  RH  035%=      5-min Rain = 0
KHA2 161739Z 21017KT 17/01 A3004 RMK A01 T01650009  RH  035%=      5-min Rain = 0
KHA2 161740Z 22017KT 17/01 A3004 RMK A01 T01650008  RH  034%=      5-min Rain = 0
KHA2 161741Z 22015KT 17/01 A3004 RMK A01 T01650009  RH  035%=      5-min Rain = 0
KHA2 161742Z 21016KT 17/01 A3004 RMK A01 T01670011  RH  035%=      5-min Rain = 0
KHA2 161743Z 21016KT 17/01 A3004 RMK A01 T01680010  RH  034%=      5-min Rain = 0
KHA2 161744Z 21016KT 17/01 A3004 RMK A01 T01680009  RH  034%=      5-min Rain = 0
KHA2 161745Z 22017KT 17/01 A3004 RMK A01 T01700010  RH  034%=      5-min Rain = 0
KHA2 161746Z 22015KT 17/01 A3004 RMK A01 T01700010  RH  034%=      5-min Rain = 0
KHA2 161747Z 22013KT 17/01 A3004 RMK A01 T01700010  RH  034%=      5-min Rain = 0
KHA2 161748Z 23016KT 17/01 A3004 RMK A01 T01720010  RH  034%=      5-min Rain = 0
KHA2 161749Z 23015KT 17/01 A3004 RMK A01 T01700009  RH  034%=      5-min Rain = 0
KHA2 161750Z 22017KT 17/01 A3004 RMK A01 T01710011  RH  034%=      5-min Rain = 0
KHA2 161751Z 22014KT 17/01 A3004 RMK A01 T01710008  RH  033%=      5-min Rain = 0
KHA2 161752Z 21016KT 17/01 A3004 RMK A01 T01720009  RH  033%=      5-min Rain = 0
KHA2 161753Z 21017KT 17/01 A3003 RMK A01 T01740010  RH  033%=      5-min Rain = 0
KHA2 161754Z 22015KT 17/01 A3003 RMK A01 T01740008  RH  033%=      5-min Rain = 0
KHA2 161755Z 22015KT 17/01 A3003 RMK A01 T01740010  RH  033%=      5-min Rain = 0
KHA2 161756Z 21014KT 17/01 A3003 RMK A01 T01740009  RH  033%=      5-min Rain = 0
KHA2 161757Z 21015KT 18/01 A3003 RMK A01 T01750011  RH  033%=      5-min Rain = 0
KHA2 161758Z 21014KT 18/01 A3003 RMK A01 T01750009  RH  033%=      5-min Rain = 0
KHA2 161759Z 22016KT 18/01 A3003 RMK A01 T01750010  RH  033%=      5-min Rain = 0
KHA2 161800Z 22015KT 18/01 A3003 RMK A01 T01760010  RH  033%=      5-min Rain = 0
KHA2 161801Z 21018KT 18/01 A3003 RMK A01 T01780010  RH  032%=      5-min Rain = 0
KHA2 161802Z 22017KT 18/01 A3003 RMK A01 T01770005  RH  031%=      5-min Rain = 0
KHA2 161803Z 22015KT 18/01 A3003 RMK A01 T01760007  RH  032%=      5-min Rain = 0
KHA2 161804Z 20015KT 18/01 A3003 RMK A01 T01790012  RH  033%=      5-min Rain = 0
KHA2 161805Z 22015KT 18/01 A3003 RMK A01 T01810008  RH  031%=      5-min Rain = 0
KHA2 161806Z 22016KT 18/01 A3002 RMK A01 T01810008  RH  031%=      5-min Rain = 0
KHA2 161807Z 22016KT 18/00 A3002 RMK A01 T01800004  RH  030%=      5-min Rain = 0
KHA2 161808Z 22015KT 18/00 A3002 RMK A01 T01780003  RH  031%=      5-min Rain = 0
KHA2 161809Z 22013KT 18/01 A3002 RMK A01 T01790005  RH  031%=      5-min Rain = 0
KHA2 161810Z 23014KT 18/01 A3002 RMK A01 T01820011  RH  032%=      5-min Rain = 0
KHA2 161811Z 21012KT 18/01 A3002 RMK A01 T01840011  RH  031%=      5-min Rain = 0
KHA2 161812Z 20014KT 19/01 A3002 RMK A01 T01860011  RH  031%=      5-min Rain = 0
KHA2 161813Z 20015KT 19/01 A3002 RMK A01 T01870008  RH  030%=      5-min Rain = 0
KHA2 161814Z 21013KT 19/01 A3002 RMK A01 T01850007  RH  030%=      5-min Rain = 0
KHA2 161815Z 21014KT 18/01 A3002 RMK A01 T01840010  RH  031%=      5-min Rain = 0
KHA2 161816Z 22013KT 18/01 A3002 RMK A01 T01830006  RH  030%=      5-min Rain = 0
KHA2 161817Z 20016KT 18/01 A3002 RMK A01 T01820009  RH  031%=      5-min Rain = 0
KHA2 161818Z 20013KT 18/01 A3002 RMK A01 T01830009  RH  031%=      5-min Rain = 0
KHA2 161819Z 22015KT 19/01 A3002 RMK A01 T01850009  RH  031%=      5-min Rain = 0
KHA2 161820Z 22015KT 19/01 A3002 RMK A01 T01850005  RH  030%=      5-min Rain = 0
KHA2 161821Z 22014KT 18/01 A3002 RMK A01 T01830006  RH  030%=      5-min Rain = 0
KHA2 161822Z 22013KT 18/00 A3002 RMK A01 T01820004  RH  030%=      5-min Rain = 0
KHA2 161823Z 22013KT 18/01 A3002 RMK A01 T01800007  RH  031%=      5-min Rain = 0
KHA2 161824Z 22013KT 18/01 A3002 RMK A01 T01810007  RH  031%=      5-min Rain = 0
KHA2 161825Z 21015KT 18/01 A3001 RMK A01 T01790005  RH  031%=      5-min Rain = 0
KHA2 161826Z 21014KT 18/01 A3001 RMK A01 T01780006  RH  031%=      5-min Rain = 0
KHA2 161827Z 20013KT 18/01 A3001 RMK A01 T01790008  RH  032%=      5-min Rain = 0
KHA2 161828Z 20015KT 18/01 A3001 RMK A01 T01810010  RH  032%=      5-min Rain = 0
KHA2 161829Z 21014KT 18/01 A3001 RMK A01 T01820008  RH  031%=      5-min Rain = 0
KHA2 161830Z 21014KT 18/01 A3001 RMK A01 T01820011  RH  031%=      5-min Rain = 0
KHA2 161831Z 21015KT 18/01 A3001 RMK A01 T01840009  RH  031%=      5-min Rain = 0
KHA2 161832Z 20014KT 18/01 A3001 RMK A01 T01830006  RH  030%=      5-min Rain = 0
KHA2 161833Z 20012KT 18/01 A3001 RMK A01 T01820008  RH  031%=      5-min Rain = 0
KHA2 161834Z 21011KT 18/01 A3001 RMK A01 T01830009  RH  031%=      5-min Rain = 0
KHA2 161835Z 21009KT 18/01 A3001 RMK A01 T01840013  RH  032%=      5-min Rain = 0
KHA2 161836Z 21014KT 19/01 A3001 RMK A01 T01860012  RH  031%=      5-min Rain = 0
KHA2 161837Z 22012KT 19/01 A3001 RMK A01 T01860009  RH  030%=      5-min Rain = 0
KHA2 161838Z 21013KT 19/01 A3001 RMK A01 T01850010  RH  031%=      5-min Rain = 0
KHA2 161839Z 20012KT 19/01 A30 RMK A01 T01850008  RH  030%=      5-min Rain = 0
KHA2 161840Z 21016KT 19/01 A30 RMK A01 T01860009  RH  031%=      5-min Rain = 0
KHA2 161841Z 22014KT 19/01 A30 RMK A01 T01850005  RH  030%=      5-min Rain = 0
KHA2 161842Z 21014KT 18/01 A30 RMK A01 T01840007  RH  030%=      5-min Rain = 0
KHA2 161843Z 22014KT 18/01 A30 RMK A01 T01840007  RH  030%=      5-min Rain = 0
KHA2 161844Z 21013KT 19/01 A30 RMK A01 T01860008  RH  030%=      5-min Rain = 0
KHA2 161845Z 22014KT 19/01 A30 RMK A01 T01880008  RH  030%=      5-min Rain = 0
KHA2 161846Z 21013KT 19/01 A30 RMK A01 T01880009  RH  030%=      5-min Rain = 0
KHA2 161847Z 22013KT 19/01 A30 RMK A01 T01890010  RH  030%=      5-min Rain = 0
KHA2 161848Z 21014KT 19/01 A30 RMK A01 T01900007  RH  029%=      5-min Rain = 0
KHA2 161849Z 22013KT 19/01 A30 RMK A01 T01890006  RH  029%=      5-min Rain = 0
KHA2 161850Z 20014KT 19/01 A30 RMK A01 T01900009  RH  030%=      5-min Rain = 0
KHA2 161851Z 22015KT 19/01 A30 RMK A01 T01910008  RH  029%=      5-min Rain = 0
KHA2 161852Z 22014KT 19/01 A30 RMK A01 T01920006  RH  029%=      5-min Rain = 0
KHA2 161853Z 21013KT 19/01 A30 RMK A01 T01910006  RH  029%=      5-min Rain = 0
KHA2 161854Z 21013KT 19/01 A30 RMK A01 T01930011  RH  029%=      5-min Rain = 0
KHA2 161855Z 21016KT 20/01 A30 RMK A01 T01950009  RH  029%=      5-min Rain = 0
KHA2 161856Z 20014KT 19/01 A2999 RMK A01 T01940006  RH  028%=      5-min Rain = 0
KHA2 161857Z 20017KT 19/01 A2999 RMK A01 T01940007  RH  029%=      5-min Rain = 0
KHA2 161858Z 21014KT 19/01 A2999 RMK A01 T01940008  RH  029%=      5-min Rain = 0
KHA2 161859Z 22014KT 20/01 A2999 RMK A01 T01960010  RH  029%=      5-min Rain = 0
KHA2 161900Z 22015KT 20/01 A2999 RMK A01 T01960007  RH  028%=      5-min Rain = 0
KHA2 161901Z 21014KT 20/01 A2999 RMK A01 T01950007  RH  028%=      5-min Rain = 0
KHA2 161902Z 21015KT 19/01 A2999 RMK A01 T01940008  RH  029%=      5-min Rain = 0
KHA2 161903Z 22011KT 19/01 A2999 RMK A01 T01940009  RH  029%=      5-min Rain = 0
KHA2 161904Z 22014KT 20/01 A2999 RMK A01 T01960010  RH  029%=      5-min Rain = 0
KHA2 161905Z 22015KT 20/01 A2999 RMK A01 T01950007  RH  028%=      5-min Rain = 0
KHA2 161906Z 22013KT 20/01 A2999 RMK A01 T01950007  RH  028%=      5-min Rain = 0
KHA2 161907Z 21012KT 19/01 A2999 RMK A01 T01940008  RH  029%=      5-min Rain = 0
KHA2 161908Z 20014KT 19/01 A2999 RMK A01 T01940010  RH  029%=      5-min Rain = 0
KHA2 161909Z 20014KT 20/01 A2998 RMK A01 T01950010  RH  029%=      5-min Rain = 0
KHA2 161910Z 21016KT 20/01 A2998 RMK A01 T01950010  RH  029%=      5-min Rain = 0
KHA2 161911Z 22016KT 20/01 A2998 RMK A01 T01970009  RH  029%=      5-min Rain = 0
KHA2 161912Z 22014KT 20/01 A2998 RMK A01 T01950009  RH  029%=      5-min Rain = 0
KHA2 161913Z 22014KT 19/01 A2998 RMK A01 T01920008  RH  029%=      5-min Rain = 0
KHA2 161914Z 22016KT 19/01 A2998 RMK A01 T01930009  RH  029%=      5-min Rain = 0
KHA2 161915Z 22016KT 19/01 A2998 RMK A01 T01930007  RH  029%=      5-min Rain = 0
KHA2 161916Z 22013KT 19/01 A2998 RMK A01 T01920008  RH  029%=      5-min Rain = 0
KHA2 161917Z 22015KT 19/01 A2998 RMK A01 T01900007  RH  029%=      5-min Rain = 0
KHA2 161918Z 22015KT 19/01 A2998 RMK A01 T01900008  RH  029%=      5-min Rain = 0
KHA2 161919Z 22016KT 19/01 A2998 RMK A01 T01910010  RH  030%=      5-min Rain = 0
KHA2 161920Z 21014KT 19/01 A2998 RMK A01 T01910009  RH  029%=      5-min Rain = 0
KHA2 161921Z 21013KT 19/01 A2998 RMK A01 T01920010  RH  029%=      5-min Rain = 0
KHA2 161922Z 22013KT 20/01 A2998 RMK A01 T01950014  RH  030%=      5-min Rain = 0
KHA2 161923Z 22016KT 20/01 A2997 RMK A01 T01960009  RH  029%=      5-min Rain = 0
KHA2 161924Z 21015KT 19/01 A2997 RMK A01 T01940008  RH  029%=      5-min Rain = 0
KHA2 161925Z 20015KT 19/01 A2997 RMK A01 T01930008  RH  029%=      5-min Rain = 0
KHA2 161926Z 20014G20KT 19/01 A2997 RMK A01 T01910008  RH  029%=      5-min Rain = 0
KHA2 161927Z 20016KT 19/01 A2997 RMK A01 T01910009  RH  030%=      5-min Rain = 0
KHA2 161928Z 21015KT 19/01 A2997 RMK A01 T01910008  RH  029%=      5-min Rain = 0
KHA2 161929Z 21015KT 19/01 A2997 RMK A01 T01910009  RH  030%=      5-min Rain = 0
KHA2 161930Z 21015KT 19/01 A2997 RMK A01 T01910009  RH  030%=      5-min Rain = 0
KHA2 161931Z 21013KT 19/01 A2997 RMK A01 T01910009  RH  029%=      5-min Rain = 0
KHA2 161932Z 22012KT 19/01 A2997 RMK A01 T01910010  RH  030%=      5-min Rain = 0
KHA2 161933Z 22015KT 19/01 A2997 RMK A01 T01930009  RH  029%=      5-min Rain = 0
KHA2 161934Z 22014KT 19/01 A2997 RMK A01 T01910007  RH  029%=      5-min Rain = 0
KHA2 161935Z 22015KT 19/01 A2997 RMK A01 T01900009  RH  030%=      5-min Rain = 0
KHA2 161936Z 21015KT 19/01 A2997 RMK A01 T01900008  RH  030%=      5-min Rain = 0
KHA2 161937Z 21011KT 19/01 A2997 RMK A01 T01900007  RH  029%=      5-min Rain = 0
KHA2 161938Z 20012KT 19/01 A2997 RMK A01 T01900012  RH  030%=      5-min Rain = 0
KHA2 161939Z 20013KT 19/01 A2997 RMK A01 T01920012  RH  030%=      5-min Rain = 0
KHA2 161940Z 20012KT 19/01 A2997 RMK A01 T01920012  RH  030%=      5-min Rain = 0
KHA2 161941Z 20015KT 19/01 A2997 RMK A01 T01920012  RH  030%=      5-min Rain = 0
KHA2 161942Z 20013KT 19/01 A2997 RMK A01 T01910011  RH  030%=      5-min Rain = 0
KHA2 161943Z 21013KT 19/01 A2997 RMK A01 T01900012  RH  030%=      5-min Rain = 0
KHA2 161944Z 21012KT 19/01 A2997 RMK A01 T01900012  RH  030%=      5-min Rain = 0
KHA2 161945Z 20014KT 19/01 A2997 RMK A01 T01900012  RH  030%=      5-min Rain = 0
KHA2 161946Z 19012KT 19/01 A2997 RMK A01 T01900011  RH  030%=      5-min Rain = 0
KHA2 161947Z 19014KT 19/01 A2997 RMK A01 T01890011  RH  030%=      5-min Rain = 0
KHA2 161948Z 19014KT 19/01 A2997 RMK A01 T01880010  RH  030%=      5-min Rain = 0
KHA2 161949Z 19014G19KT 19/01 A2997 RMK A01 T01870008  RH  030%=      5-min Rain = 0
KHA2 161950Z 19015KT 19/01 A2996 RMK A01 T01860008  RH  030%=      5-min Rain = 0
KHA2 161951Z 20013KT 19/01 A2996 RMK A01 T01850009  RH  031%=      5-min Rain = 0
KHA2 161952Z 19013KT 19/01 A2996 RMK A01 T01850009  RH  031%=      5-min Rain = 0
KHA2 161953Z 21011KT 19/01 A2996 RMK A01 T01860011  RH  031%=      5-min Rain = 0
KHA2 161954Z 20013KT 19/01 A2996 RMK A01 T01860010  RH  031%=      5-min Rain = 0
KHA2 161955Z 20011KT 19/01 A2996 RMK A01 T01870011  RH  031%=      5-min Rain = 0
KHA2 161956Z 20012KT 19/01 A2996 RMK A01 T01870013  RH  031%=      5-min Rain = 0
KHA2 161957Z 20014KT 19/01 A2996 RMK A01 T01870010  RH  030%=      5-min Rain = 0
KHA2 161958Z 20013KT 19/01 A2996 RMK A01 T01870009  RH  030%=      5-min Rain = 0
KHA2 161959Z 20013KT 19/01 A2996 RMK A01 T01860008  RH  030%=      5-min Rain = 0
KHA2 162000Z 20012KT 19/01 A2996 RMK A01 T01850008  RH  030%=      5-min Rain = 0
KHA2 162001Z 19014KT 19/01 A2996 RMK A01 T01850009  RH  031%=      5-min Rain = 0
KHA2 162002Z 20014KT 19/01 A2996 RMK A01 T01850008  RH  031%=      5-min Rain = 0
KHA2 162003Z 19012KT 19/01 A2996 RMK A01 T01850009  RH  031%=      5-min Rain = 0
KHA2 162004Z 19011KT 19/01 A2996 RMK A01 T01850009  RH  031%=      5-min Rain = 0
KHA2 162005Z 20013KT 19/01 A2996 RMK A01 T01860011  RH  031%=      5-min Rain = 0
KHA2 162006Z 20013KT 19/01 A2996 RMK A01 T01870010  RH  030%=      5-min Rain = 0
KHA2 162007Z 20013KT 19/01 A2996 RMK A01 T01870008  RH  030%=      5-min Rain = 0
KHA2 162008Z 19014KT 19/01 A2996 RMK A01 T01860009  RH  030%=      5-min Rain = 0
KHA2 162009Z 20014KT 19/01 A2996 RMK A01 T01860009  RH  030%=      5-min Rain = 0
KHA2 162010Z 20012KT 19/01 A2996 RMK A01 T01860008  RH  030%=      5-min Rain = 0
KHA2 162011Z 19014KT 19/01 A2996 RMK A01 T01860008  RH  030%=      5-min Rain = 0
KHA2 162012Z 20012KT 19/01 A2996 RMK A01 T01860007  RH  030%=      5-min Rain = 0
KHA2 162013Z 20013KT 19/01 A2996 RMK A01 T01870011  RH  031%=      5-min Rain = 0
KHA2 162014Z 20013KT 19/01 A2995 RMK A01 T01870009  RH  030%=      5-min Rain = 0
KHA2 162015Z 20014KT 19/01 A2995 RMK A01 T01870009  RH  030%=      5-min Rain = 0
KHA2 162016Z 20016KT 19/01 A2995 RMK A01 T01870008  RH  030%=      5-min Rain = 0
KHA2 162017Z 20015KT 19/01 A2995 RMK A01 T01860007  RH  030%=      5-min Rain = 0
KHA2 162018Z 19016KT 19/01 A2995 RMK A01 T01850006  RH  030%=      5-min Rain = 0
KHA2 162019Z 20012KT 19/01 A2995 RMK A01 T01850008  RH  030%=      5-min Rain = 0
KHA2 162020Z 19013KT 19/01 A2995 RMK A01 T01850009  RH  031%=      5-min Rain = 0
KHA2 162021Z 20015KT 19/01 A2995 RMK A01 T01850007  RH  030%=      5-min Rain = 0
KHA2 162022Z 20015KT 19/01 A2995 RMK A01 T01860006  RH  030%=      5-min Rain = 0
KHA2 162023Z 19013KT 19/01 A2995 RMK A01 T01850006  RH  030%=      5-min Rain = 0
KHA2 162024Z 19013KT 19/01 A2995 RMK A01 T01850008  RH  030%=      5-min Rain = 0
KHA2 162025Z 19014KT 19/01 A2995 RMK A01 T01850007  RH  030%=      5-min Rain = 0
KHA2 162026Z 19015KT 19/01 A2995 RMK A01 T01860006  RH  030%=      5-min Rain = 0
KHA2 162027Z 19013KT 19/01 A2995 RMK A01 T01850006  RH  030%=      5-min Rain = 0
KHA2 162028Z 19015KT 19/01 A2995 RMK A01 T01850006  RH  030%=      5-min Rain = 0
KHA2 162029Z 19016KT 19/01 A2995 RMK A01 T01850005  RH  030%=      5-min Rain = 0
KHA2 162030Z 19014KT 19/01 A2995 RMK A01 T01850005  RH  030%=      5-min Rain = 0
KHA2 162031Z 19014KT 19/01 A2995 RMK A01 T01850007  RH  030%=      5-min Rain = 0
KHA2 162032Z 20014KT 19/01 A2995 RMK A01 T01850007  RH  030%=      5-min Rain = 0
KHA2 162033Z 20016KT 19/01 A2995 RMK A01 T01860006  RH  030%=      5-min Rain = 0
KHA2 162034Z 20016KT 19/00 A2995 RMK A01 T01860003  RH  029%=      5-min Rain = 0
KHA2 162035Z 20017KT 19/00 A2995 RMK A01 T01850004  RH  030%=      5-min Rain = 0
KHA2 162036Z 20015KT 19/01 A2995 RMK A01 T01850006  RH  030%=      5-min Rain = 0
KHA2 162037Z 19016KT 19/01 A2994 RMK A01 T01850005  RH  030%=      5-min Rain = 0
KHA2 162038Z 20013G19KT 19/01 A2995 RMK A01 T01850006  RH  030%=      5-min Rain = 0
KHA2 162039Z 19018KT 19/01 A2994 RMK A01 T01850007  RH  030%=      5-min Rain = 0
KHA2 162040Z 19017KT 19/01 A2994 RMK A01 T01860005  RH  030%=      5-min Rain = 0
KHA2 162041Z 19014KT 19/01 A2994 RMK A01 T01850005  RH  030%=      5-min Rain = 0
KHA2 162042Z 19014KT 19/01 A2994 RMK A01 T01860007  RH  030%=      5-min Rain = 0
KHA2 162043Z 20016KT 19/01 A2994 RMK A01 T01870006  RH  030%=      5-min Rain = 0
KHA2 162044Z 19015KT 19/00 A2994 RMK A01 T01870004  RH  029%=      5-min Rain = 0
KHA2 162045Z 19015KT 19/01 A2994 RMK A01 T01860005  RH  029%=      5-min Rain = 0
KHA2 162046Z 20016KT 19/00 A2994 RMK A01 T01860004  RH  029%=      5-min Rain = 0
KHA2 162047Z 20017KT 19/00 A2994 RMK A01 T01850004  RH  030%=      5-min Rain = 0
KHA2 162048Z 20015KT 19/00 A2994 RMK A01 T01860004  RH  029%=      5-min Rain = 0
KHA2 162049Z 20013KT 19/01 A2994 RMK A01 T01870007  RH  030%=      5-min Rain = 0
KHA2 162050Z 20015KT 19/01 A2994 RMK A01 T01890006  RH  029%=      5-min Rain = 0
KHA2 162051Z 20012KT 19/01 A2994 RMK A01 T01890006  RH  029%=      5-min Rain = 0
KHA2 162052Z 20015KT 19/01 A2994 RMK A01 T01890007  RH  029%=      5-min Rain = 0
KHA2 162053Z 20014KT 19/01 A2994 RMK A01 T01890006  RH  029%=      5-min Rain = 0
KHA2 162054Z 19017KT 19/01 A2994 RMK A01 T01890007  RH  029%=      5-min Rain = 0
KHA2 162055Z 19016KT 19/01 A2994 RMK A01 T01900005  RH  029%=      5-min Rain = 0
KHA2 162056Z 20015KT 19/01 A2994 RMK A01 T01890006  RH  029%=      5-min Rain = 0
KHA2 162057Z 19015KT 19/01 A2994 RMK A01 T01890006  RH  029%=      5-min Rain = 0
KHA2 162058Z 19014KT 19/01 A2994 RMK A01 T01900007  RH  029%=      5-min Rain = 0
KHA2 162059Z 19012KT 19/01 A2994 RMK A01 T01910010  RH  030%=      5-min Rain = 0
KHA2 162100Z 19015KT 19/01 A2994 RMK A01 T01930011  RH  029%=      5-min Rain = 0
KHA2 162101Z 19017KT 19/01 A2993 RMK A01 T01930008  RH  029%=      5-min Rain = 0
KHA2 162102Z 19018KT 19/01 A2993 RMK A01 T01930007  RH  029%=      5-min Rain = 0
KHA2 162103Z 19015KT 19/01 A2993 RMK A01 T01910006  RH  029%=      5-min Rain = 0
KHA2 162104Z 20016KT 19/01 A2993 RMK A01 T01900007  RH  029%=      5-min Rain = 0
KHA2 162105Z 19014KT 19/01 A2993 RMK A01 T01900007  RH  029%=      5-min Rain = 0
KHA2 162106Z 19015KT 19/01 A2993 RMK A01 T01890007  RH  029%=      5-min Rain = 0
KHA2 162107Z 19015KT 19/01 A2994 RMK A01 T01890008  RH  030%=      5-min Rain = 0
KHA2 162108Z 19017KT 19/01 A2994 RMK A01 T01880007  RH  030%=      5-min Rain = 0
KHA2 162109Z 19015KT 19/01 A2994 RMK A01 T01870007  RH  030%=      5-min Rain = 0
KHA2 162110Z 19015KT 19/01 A2994 RMK A01 T01870008  RH  030%=      5-min Rain = 0
KHA2 162111Z 19016KT 19/01 A2994 RMK A01 T01860008  RH  030%=      5-min Rain = 0
KHA2 162112Z 19017KT 19/01 A2994 RMK A01 T01850007  RH  030%=      5-min Rain = 0
KHA2 162113Z 18016KT 19/01 A2994 RMK A01 T01850007  RH  030%=      5-min Rain = 0
KHA2 162114Z 18016KT 18/01 A2994 RMK A01 T01840006  RH  030%=      5-min Rain = 0
KHA2 162115Z 19015KT 18/01 A2994 RMK A01 T01840006  RH  030%=      5-min Rain = 0
KHA2 162116Z 20014KT 18/01 A2994 RMK A01 T01840006  RH  030%=      5-min Rain = 0
KHA2 162117Z 20014KT 18/01 A2994 RMK A01 T01840009  RH  031%=      5-min Rain = 0
KHA2 162118Z 20014KT 19/01 A2994 RMK A01 T01850008  RH  031%=      5-min Rain = 0
KHA2 162119Z 19014KT 19/01 A2994 RMK A01 T01850008  RH  030%=      5-min Rain = 0
KHA2 162120Z 19013KT 19/01 A2994 RMK A01 T01850009  RH  031%=      5-min Rain = 0
KHA2 162121Z 19015KT 19/01 A2994 RMK A01 T01850008  RH  030%=      5-min Rain = 0
KHA2 162122Z 19016KT 19/01 A2994 RMK A01 T01850007  RH  030%=      5-min Rain = 0
KHA2 162123Z 19016KT 19/01 A2994 RMK A01 T01850007  RH  030%=      5-min Rain = 0
KHA2 162124Z 19018KT 19/01 A2994 RMK A01 T01850006  RH  030%=      5-min Rain = 0
KHA2 162125Z 19016KT 18/01 A2994 RMK A01 T01840007  RH  030%=      5-min Rain = 0
KHA2 162126Z 20017KT 18/01 A2994 RMK A01 T01840008  RH  031%=      5-min Rain = 0
KHA2 162127Z 20017KT 19/01 A2994 RMK A01 T01850006  RH  030%=      5-min Rain = 0
KHA2 162128Z 20015KT 18/01 A2994 RMK A01 T01830005  RH  030%=      5-min Rain = 0
KHA2 162129Z 19014KT 18/01 A2994 RMK A01 T01830006  RH  030%=      5-min Rain = 0
KHA2 162130Z 19015KT 18/01 A2994 RMK A01 T01830007  RH  030%=      5-min Rain = 0
KHA2 162131Z 20014KT 18/01 A2994 RMK A01 T01830007  RH  031%=      5-min Rain = 0
KHA2 162132Z 19016KT 18/01 A2994 RMK A01 T01830007  RH  031%=      5-min Rain = 0
KHA2 162133Z 20013KT 18/01 A2994 RMK A01 T01810007  RH  031%=      5-min Rain = 0
KHA2 162134Z 20012G20KT 18/01 A2994 RMK A01 T01810008  RH  031%=      5-min Rain = 0
KHA2 162135Z 20015KT 18/01 A2994 RMK A01 T01810007  RH  031%=      5-min Rain = 0
KHA2 162136Z 20015KT 18/01 A2994 RMK A01 T01800006  RH  031%=      5-min Rain = 0
KHA2 162137Z 20016KT 18/01 A2994 RMK A01 T01800006  RH  031%=      5-min Rain = 0
KHA2 162138Z 19015KT 18/01 A2994 RMK A01 T01800005  RH  031%=      5-min Rain = 0
KHA2 162139Z 19014KT 18/01 A2994 RMK A01 T01800005  RH  031%=      5-min Rain = 0
KHA2 162140Z 20013KT 18/01 A2994 RMK A01 T01800006  RH  031%=      5-min Rain = 0
KHA2 162141Z 19012KT 18/01 A2994 RMK A01 T01790006  RH  031%=      5-min Rain = 0
KHA2 162142Z 19013KT 18/01 A2994 RMK A01 T01790006  RH  031%=      5-min Rain = 0
KHA2 162143Z 19013KT 18/01 A2994 RMK A01 T01790006  RH  031%=      5-min Rain = 0
KHA2 162144Z 20012KT 18/01 A2994 RMK A01 T01790006  RH  031%=      5-min Rain = 0
KHA2 162145Z 20013KT 18/01 A2994 RMK A01 T01790006  RH  031%=      5-min Rain = 0
KHA2 162146Z 19013KT 18/01 A2994 RMK A01 T01780005  RH  031%=      5-min Rain = 0
KHA2 162147Z 19013KT 18/01 A2994 RMK A01 T01780007  RH  031%=      5-min Rain = 0
KHA2 162148Z 19012KT 18/01 A2994 RMK A01 T01780008  RH  032%=      5-min Rain = 0
KHA2 162149Z 19012KT 18/01 A2994 RMK A01 T01780009  RH  032%=      5-min Rain = 0
KHA2 162150Z 19012KT 18/01 A2994 RMK A01 T01770009  RH  032%=      5-min Rain = 0
KHA2 162151Z 19014KT 18/01 A2994 RMK A01 T01770009  RH  032%=      5-min Rain = 0
KHA2 162152Z 19014KT 18/01 A2994 RMK A01 T01760007  RH  032%=      5-min Rain = 0
KHA2 162153Z 18015KT 18/01 A2994 RMK A01 T01760006  RH  032%=      5-min Rain = 0
KHA2 162154Z 19013KT 18/01 A2994 RMK A01 T01760006  RH  032%=      5-min Rain = 0
KHA2 162155Z 19013KT 18/01 A2994 RMK A01 T01760007  RH  032%=      5-min Rain = 0
KHA2 162156Z 19012KT 18/01 A2994 RMK A01 T01760007  RH  032%=      5-min Rain = 0
KHA2 162157Z 18012KT 18/01 A2994 RMK A01 T01760008  RH  032%=      5-min Rain = 0
KHA2 162158Z 18013KT 18/01 A2994 RMK A01 T01750007  RH  032%=      5-min Rain = 0
KHA2 162159Z 18013KT 18/01 A2994 RMK A01 T01760008  RH  032%=      5-min Rain = 0
KHA2 162200Z 18014KT 18/01 A2994 RMK A01 T01750007  RH  032%=      5-min Rain = 0
KHA2 162201Z 19012KT 18/01 A2994 RMK A01 T01760009  RH  032%=      5-min Rain = 0
KHA2 162202Z 19014KT 18/01 A2994 RMK A01 T01750009  RH  032%=      5-min Rain = 0
KHA2 162203Z 19017KT 18/01 A2994 RMK A01 T01760008  RH  032%=      5-min Rain = 0
KHA2 162204Z 19014KT 18/01 A2994 RMK A01 T01750007  RH  032%=      5-min Rain = 0
KHA2 162205Z 19015KT 18/01 A2994 RMK A01 T01750008  RH  032%=      5-min Rain = 0
KHA2 162206Z 19015KT 18/01 A2994 RMK A01 T01750008  RH  032%=      5-min Rain = 0
KHA2 162207Z 19015KT 18/01 A2994 RMK A01 T01750009  RH  032%=      5-min Rain = 0
KHA2 162208Z 19013KT 18/01 A2994 RMK A01 T01750009  RH  033%=      5-min Rain = 0
KHA2 162209Z 19014KT 17/01 A2995 RMK A01 T01740009  RH  033%=      5-min Rain = 0
KHA2 162210Z 19013KT 18/01 A2995 RMK A01 T01750009  RH  033%=      5-min Rain = 0
KHA2 162211Z 19015KT 18/01 A2995 RMK A01 T01750010  RH  033%=      5-min Rain = 0
KHA2 162212Z 19015KT 17/01 A2994 RMK A01 T01740010  RH  033%=      5-min Rain = 0
KHA2 162213Z 19014KT 17/01 A2995 RMK A01 T01740009  RH  033%=      5-min Rain = 0
KHA2 162214Z 19017KT 17/01 A2994 RMK A01 T01740009  RH  033%=      5-min Rain = 0
KHA2 162215Z 19015KT 17/01 A2994 RMK A01 T01740009  RH  033%=      5-min Rain = 0
KHA2 162216Z 19015KT 17/01 A2994 RMK A01 T01740010  RH  033%=      5-min Rain = 0
KHA2 162217Z 19016KT 17/01 A2994 RMK A01 T01730010  RH  033%=      5-min Rain = 0
KHA2 162218Z 19014KT 17/01 A2994 RMK A01 T01730011  RH  033%=      5-min Rain = 0
KHA2 162219Z 19015KT 17/01 A2994 RMK A01 T01730011  RH  034%=      5-min Rain = 0
KHA2 162220Z 18014KT 17/01 A2994 RMK A01 T01730012  RH  034%=      5-min Rain = 0
KHA2 162221Z 18014KT 17/01 A2994 RMK A01 T01730012  RH  034%=      5-min Rain = 0
KHA2 162222Z 19014KT 17/01 A2994 RMK A01 T01730013  RH  034%=      5-min Rain = 0
KHA2 162223Z 18012KT 17/01 A2994 RMK A01 T01730012  RH  034%=      5-min Rain = 0
KHA2 162224Z 19011KT 17/01 A2994 RMK A01 T01730014  RH  034%=      5-min Rain = 0
KHA2 162225Z 19012KT 17/01 A2994 RMK A01 T01730014  RH  034%=      5-min Rain = 0
KHA2 162226Z 19011KT 17/01 A2994 RMK A01 T01730014  RH  034%=      5-min Rain = 0
KHA2 162227Z 19010KT 17/02 A2994 RMK A01 T01730015  RH  034%=      5-min Rain = 0
KHA2 162228Z 19012KT 17/01 A2994 RMK A01 T01730014  RH  034%=      5-min Rain = 0
KHA2 162229Z 19012KT 17/01 A2994 RMK A01 T01730013  RH  034%=      5-min Rain = 0
KHA2 162230Z 19011KT 17/01 A2994 RMK A01 T01730013  RH  034%=      5-min Rain = 0
KHA2 162231Z 19012KT 17/01 A2994 RMK A01 T01730012  RH  034%=      5-min Rain = 0
KHA2 162232Z 19010KT 17/01 A2994 RMK A01 T01730013  RH  034%=      5-min Rain = 0
KHA2 162233Z 19011KT 17/01 A2994 RMK A01 T01730013  RH  034%=      5-min Rain = 0
KHA2 162234Z 19009KT 17/01 A2994 RMK A01 T01730014  RH  034%=      5-min Rain = 0
KHA2 162235Z 19011KT 17/01 A2994 RMK A01 T01740013  RH  034%=      5-min Rain = 0
KHA2 162236Z 19010KT 18/01 A2994 RMK A01 T01750014  RH  034%=      5-min Rain = 0
KHA2 162237Z 19009KT 18/01 A2994 RMK A01 T01750014  RH  034%=      5-min Rain = 0
KHA2 162238Z 19010KT 18/02 A2994 RMK A01 T01760015  RH  034%=      5-min Rain = 0
KHA2 162239Z 19011KT 18/02 A2994 RMK A01 T01770015  RH  034%=      5-min Rain = 0
KHA2 162240Z 19011KT 18/02 A2994 RMK A01 T01770015  RH  034%=      5-min Rain = 0
KHA2 162241Z 18012KT 18/01 A2994 RMK A01 T01770014  RH  033%=      5-min Rain = 0
KHA2 162242Z 19013KT 18/01 A2994 RMK A01 T01780013  RH  033%=      5-min Rain = 0
KHA2 162243Z 19014KT 18/01 A2994 RMK A01 T01790012  RH  033%=      5-min Rain = 0
KHA2 162244Z 19011KT 18/01 A2994 RMK A01 T01800012  RH  032%=      5-min Rain = 0
KHA2 162245Z 18012KT 18/01 A2994 RMK A01 T01800014  RH  033%=      5-min Rain = 0
KHA2 162246Z 18014KT 18/01 A2994 RMK A01 T01800012  RH  032%=      5-min Rain = 0
KHA2 162247Z 19012KT 18/01 A2994 RMK A01 T01810011  RH  032%=      5-min Rain = 0
KHA2 162248Z 19014KT 18/01 A2994 RMK A01 T01800011  RH  032%=      5-min Rain = 0
KHA2 162249Z 19014KT 18/01 A2994 RMK A01 T01800010  RH  032%=      5-min Rain = 0
KHA2 162250Z 18015KT 18/01 A2994 RMK A01 T01800011  RH  032%=      5-min Rain = 0
KHA2 162251Z 18017KT 18/01 A2994 RMK A01 T01790011  RH  032%=      5-min Rain = 0
KHA2 162252Z 18017KT 18/01 A2994 RMK A01 T01780012  RH  033%=      5-min Rain = 0
KHA2 162253Z 18015KT 18/01 A2994 RMK A01 T01760012  RH  033%=      5-min Rain = 0
KHA2 162254Z 18016KT 18/01 A2994 RMK A01 T01750013  RH  034%=      5-min Rain = 0
KHA2 162255Z 18015KT 17/01 A2994 RMK A01 T01740013  RH  034%=      5-min Rain = 0
KHA2 162256Z 18015KT 17/01 A2994 RMK A01 T01730012  RH  034%=      5-min Rain = 0
KHA2 162257Z 18013KT 17/01 A2994 RMK A01 T01720013  RH  034%=      5-min Rain = 0
KHA2 162258Z 18016KT 17/01 A2994 RMK A01 T01710013  RH  034%=      5-min Rain = 0
KHA2 162259Z 18016KT 17/01 A2994 RMK A01 T01710013  RH  034%=      5-min Rain = 0
KHA2 162300Z 18014KT 17/01 A2994 RMK A01 T01700013  RH  035%=      5-min Rain = 0
KHA2 162301Z 18012KT 17/01 A2994 RMK A01 T01700013  RH  035%=      5-min Rain = 0
KHA2 162302Z 18014KT 17/01 A2994 RMK A01 T01690014  RH  035%=      5-min Rain = 0
KHA2 162303Z 18013KT 17/01 A2994 RMK A01 T01680013  RH  035%=      5-min Rain = 0
KHA2 162304Z 18012KT 17/01 A2994 RMK A01 T01680013  RH  035%=      5-min Rain = 0
KHA2 162305Z 18012KT 17/01 A2994 RMK A01 T01670014  RH  036%=      5-min Rain = 0
KHA2 162306Z 18012KT 17/01 A2994 RMK A01 T01660014  RH  036%=      5-min Rain = 0
KHA2 162307Z 18013KT 17/01 A2994 RMK A01 T01650013  RH  036%=      5-min Rain = 0
KHA2 162308Z 18013KT 16/01 A2994 RMK A01 T01640012  RH  036%=      5-min Rain = 0
KHA2 162309Z 18012KT 16/01 A2994 RMK A01 T01630012  RH  036%=      5-min Rain = 0
KHA2 162310Z 18013KT 16/01 A2994 RMK A01 T01610012  RH  036%=      5-min Rain = 0
KHA2 162311Z 18013KT 16/01 A2994 RMK A01 T01600011  RH  037%=      5-min Rain = 0
KHA2 162312Z 18012KT 16/01 A2994 RMK A01 T01580011  RH  037%=      5-min Rain = 0
KHA2 162313Z 19012KT 16/01 A2994 RMK A01 T01570011  RH  037%=      5-min Rain = 0
KHA2 162314Z 18013KT 16/01 A2994 RMK A01 T01560011  RH  037%=      5-min Rain = 0
KHA2 162315Z 18013KT 16/01 A2994 RMK A01 T01560011  RH  037%=      5-min Rain = 0
KHA2 162316Z 18012KT 16/01 A2994 RMK A01 T01550011  RH  038%=      5-min Rain = 0
KHA2 162317Z 19011KT 15/01 A2995 RMK A01 T01540011  RH  038%=      5-min Rain = 0
KHA2 162318Z 18012KT 15/01 A2995 RMK A01 T01530011  RH  038%=      5-min Rain = 0
KHA2 162319Z 18011KT 15/01 A2995 RMK A01 T01520011  RH  038%=      5-min Rain = 0
KHA2 162320Z 18011KT 15/01 A2995 RMK A01 T01510012  RH  039%=      5-min Rain = 0
KHA2 162321Z 18010KT 15/01 A2995 RMK A01 T01500012  RH  039%=      5-min Rain = 0
KHA2 162322Z 18010KT 15/01 A2995 RMK A01 T01510012  RH  039%=      5-min Rain = 0
KHA2 162323Z 18011KT 15/01 A2995 RMK A01 T01500012  RH  039%=      5-min Rain = 0
KHA2 162324Z 18010KT 15/01 A2995 RMK A01 T01490012  RH  039%=      5-min Rain = 0
KHA2 162325Z 19011KT 15/01 A2995 RMK A01 T01490012  RH  039%=      5-min Rain = 0
KHA2 162326Z 18010KT 15/01 A2995 RMK A01 T01480012  RH  040%=      5-min Rain = 0
KHA2 162327Z 18011KT 15/01 A2995 RMK A01 T01480012  RH  040%=      5-min Rain = 0
KHA2 162328Z 18011KT 15/01 A2995 RMK A01 T01460012  RH  040%=      5-min Rain = 0
KHA2 162329Z 18011KT 15/01 A2995 RMK A01 T01460012  RH  040%=      5-min Rain = 0
KHA2 162330Z 18010KT 15/01 A2995 RMK A01 T01450012  RH  040%=      5-min Rain = 0
KHA2 162331Z 18010KT 14/01 A2995 RMK A01 T01440011  RH  040%=      5-min Rain = 0
KHA2 162332Z 18010KT 14/01 A2995 RMK A01 T01430011  RH  041%=      5-min Rain = 0
KHA2 162333Z 18011KT 14/01 A2995 RMK A01 T01410011  RH  041%=      5-min Rain = 0
KHA2 162334Z 18011KT 14/01 A2995 RMK A01 T01400011  RH  042%=      5-min Rain = 0
KHA2 162335Z 18011KT 14/01 A2995 RMK A01 T01390011  RH  042%=      5-min Rain = 0
KHA2 162336Z 18011KT 14/01 A2995 RMK A01 T01380011  RH  042%=      5-min Rain = 0
KHA2 162337Z 18011KT 14/01 A2995 RMK A01 T01380011  RH  042%=      5-min Rain = 0
KHA2 162338Z 19010KT 14/01 A2995 RMK A01 T01370011  RH  042%=      5-min Rain = 0
KHA2 162339Z 18010KT 14/01 A2995 RMK A01 T01360010  RH  042%=      5-min Rain = 0
KHA2 162340Z 18010KT 14/01 A2996 RMK A01 T01350010  RH  043%=      5-min Rain = 0
KHA2 162341Z 18010KT 13/01 A2996 RMK A01 T01330010  RH  043%=      5-min Rain = 0
KHA2 162342Z 18010KT 13/01 A2996 RMK A01 T01320009  RH  043%=      5-min Rain = 0
KHA2 162343Z 18010KT 13/01 A2996 RMK A01 T01300009  RH  043%=      5-min Rain = 0
KHA2 162344Z 18010KT 13/01 A2996 RMK A01 T01290009  RH  044%=      5-min Rain = 0
KHA2 162345Z 18010KT 13/01 A2996 RMK A01 T01290009  RH  044%=      5-min Rain = 0
KHA2 162346Z 18010KT 13/01 A2996 RMK A01 T01280009  RH  044%=      5-min Rain = 0
KHA2 162347Z 18010KT 13/01 A2996 RMK A01 T01280009  RH  044%=      5-min Rain = 0
KHA2 162348Z 18010KT 13/01 A2996 RMK A01 T01280009  RH  044%=      5-min Rain = 0
KHA2 162349Z 18010KT 13/01 A2996 RMK A01 T01260008  RH  044%=      5-min Rain = 0
KHA2 162350Z 18010KT 12/01 A2996 RMK A01 T01240008  RH  045%=      5-min Rain = 0
KHA2 162351Z 18010KT 12/01 A2996 RMK A01 T01230008  RH  045%=      5-min Rain = 0
KHA2 162352Z 18010KT 12/01 A2996 RMK A01 T01220007  RH  045%=      5-min Rain = 0
KHA2 162353Z 19010KT 12/01 A2996 RMK A01 T01210007  RH  046%=      5-min Rain = 0
KHA2 162354Z 19010KT 12/01 A2996 RMK A01 T01200007  RH  046%=      5-min Rain = 0
KHA2 162355Z 19010KT 12/01 A2996 RMK A01 T01190007  RH  046%=      5-min Rain = 0
KHA2 162356Z 19010KT 12/01 A2996 RMK A01 T01190007  RH  046%=      5-min Rain = 0
KHA2 162357Z 19010KT 12/01 A2996 RMK A01 T01180007  RH  046%=      5-min Rain = 0
KHA2 162358Z 19010KT 12/01 A2996 RMK A01 T01190007  RH  046%=      5-min Rain = 0
KHA2 162359Z 19010KT 12/01 A2996 RMK A01 T01200008  RH  046%=      5-min Rain = 0
KHA2 170000Z 19010KT 12/01 A2996 RMK A01 T01200008  RH  046%=      5-min Rain = 0
KHA2 170001Z 19010KT 12/01 A2996 RMK A01 T01210008  RH  046%=      5-min Rain = 0
KHA2 170002Z 19010KT 12/01 A2996 RMK A01 T01210008  RH  046%=      5-min Rain = 0
KHA2 170003Z 19010KT 12/01 A2996 RMK A01 T01210008  RH  046%=      5-min Rain = 0
KHA2 170004Z 19010KT 12/01 A2996 RMK A01 T01210008  RH  046%=      5-min Rain = 0
KHA2 170005Z 19010KT 12/01 A2996 RMK A01 T01210009  RH  046%=      5-min Rain = 0
KHA2 170006Z 19010KT 12/01 A2996 RMK A01 T01210009  RH  046%=      5-min Rain = 0
KHA2 170007Z 18009KT 12/01 A2996 RMK A01 T01200008  RH  046%=      5-min Rain = 0
KHA2 170008Z 19009KT 12/01 A2996 RMK A01 T01200009  RH  046%=      5-min Rain = 0
KHA2 170009Z 18009KT 12/01 A2996 RMK A01 T01190008  RH  047%=      5-min Rain = 0
KHA2 170010Z 18009KT 12/01 A2996 RMK A01 T01180008  RH  047%=      5-min Rain = 0
KHA2 170011Z 18009KT 12/01 A2996 RMK A01 T01170008  RH  047%=      5-min Rain = 0
KHA2 170012Z 18009KT 12/01 A2996 RMK A01 T01170008  RH  047%=      5-min Rain = 0
KHA2 170013Z 18009KT 12/01 A2996 RMK A01 T01150008  RH  048%=      5-min Rain = 0
KHA2 170014Z 18009KT 11/01 A2996 RMK A01 T01140007  RH  048%=      5-min Rain = 0
KHA2 170015Z 19009KT 11/01 A2996 RMK A01 T01140008  RH  048%=      5-min Rain = 0
KHA2 170016Z 19010KT 11/01 A2996 RMK A01 T01140008  RH  048%=      5-min Rain = 0
KHA2 170017Z 18010KT 12/01 A2996 RMK A01 T01150008  RH  048%=      5-min Rain = 0
KHA2 170018Z 19010KT 12/01 A2996 RMK A01 T01170008  RH  047%=      5-min Rain = 0
KHA2 170019Z 18010KT 12/01 A2997 RMK A01 T01180008  RH  047%=      5-min Rain = 0
KHA2 170020Z 18010KT 12/01 A2997 RMK A01 T01180008  RH  047%=      5-min Rain = 0
KHA2 170021Z 19009KT 12/01 A2996 RMK A01 T01190008  RH  047%=      5-min Rain = 0
KHA2 170022Z 19010KT 12/01 A2997 RMK A01 T01190008  RH  047%=      5-min Rain = 0
KHA2 170023Z 18009KT 12/01 A2997 RMK A01 T01190008  RH  047%=      5-min Rain = 0
KHA2 170024Z 18009KT 12/01 A2997 RMK A01 T01190008  RH  047%=      5-min Rain = 0
KHA2 170025Z 18009KT 12/01 A2997 RMK A01 T01180008  RH  047%=      5-min Rain = 0
KHA2 170026Z 18009KT 12/01 A2997 RMK A01 T01170008  RH  047%=      5-min Rain = 0
KHA2 170027Z 18008KT 12/01 A2997 RMK A01 T01170008  RH  047%=      5-min Rain = 0
KHA2 170028Z 18009KT 12/01 A2997 RMK A01 T01160008  RH  047%=      5-min Rain = 0
KHA2 170029Z 18009KT 12/01 A2997 RMK A01 T01160008  RH  047%=      5-min Rain = 0
KHA2 170030Z 18008KT 12/01 A2997 RMK A01 T01150008  RH  048%=      5-min Rain = 0
KHA2 170031Z 18008KT 11/01 A2997 RMK A01 T01140007  RH  048%=      5-min Rain = 0
KHA2 170032Z 18008KT 11/01 A2997 RMK A01 T01140007  RH  048%=      5-min Rain = 0
KHA2 170033Z 18008KT 11/01 A2997 RMK A01 T01130007  RH  048%=      5-min Rain = 0
KHA2 170034Z 17008KT 11/01 A2997 RMK A01 T01130007  RH  048%=      5-min Rain = 0
KHA2 170035Z 17008KT 11/01 A2997 RMK A01 T01130007  RH  048%=      5-min Rain = 0
KHA2 170036Z 17007KT 11/01 A2997 RMK A01 T01120007  RH  048%=      5-min Rain = 0
KHA2 170037Z 17007KT 11/01 A2997 RMK A01 T01120007  RH  048%=      5-min Rain = 0
KHA2 170038Z 17007KT 11/01 A2997 RMK A01 T01120007  RH  048%=      5-min Rain = 0
KHA2 170039Z 17006KT 11/01 A2997 RMK A01 T01110007  RH  049%=      5-min Rain = 0
KHA2 170040Z 17007KT 11/01 A2997 RMK A01 T01110007  RH  049%=      5-min Rain = 0
KHA2 170041Z 17007KT 11/01 A2997 RMK A01 T01100006  RH  049%=      5-min Rain = 0
KHA2 170042Z 17007KT 11/01 A2997 RMK A01 T01090006  RH  049%=      5-min Rain = 0
KHA2 170043Z 17007KT 11/01 A2997 RMK A01 T01090006  RH  049%=      5-min Rain = 0
KHA2 170044Z 17007KT 11/01 A2997 RMK A01 T01070006  RH  050%=      5-min Rain = 0
KHA2 170045Z 16007KT 11/01 A2997 RMK A01 T01060006  RH  050%=      5-min Rain = 0
KHA2 170046Z 16007KT 10/01 A2997 RMK A01 T01040006  RH  051%=      5-min Rain = 0
KHA2 170047Z 16008KT 10/01 A2997 RMK A01 T01030006  RH  051%=      5-min Rain = 0
KHA2 170048Z 17008KT 10/01 A2997 RMK A01 T01010006  RH  052%=      5-min Rain = 0
KHA2 170049Z 17008KT 10/01 A2997 RMK A01 T01000006  RH  052%=      5-min Rain = 0
KHA2 170050Z 17009KT 10/01 A2997 RMK A01 T01000007  RH  053%=      5-min Rain = 0
KHA2 170051Z 17009KT 10/01 A2997 RMK A01 T00990007  RH  053%=      5-min Rain = 0
KHA2 170052Z 17008KT 10/01 A2997 RMK A01 T00990007  RH  053%=      5-min Rain = 0
KHA2 170053Z 17008KT 10/01 A2997 RMK A01 T00990007  RH  053%=      5-min Rain = 0
KHA2 170054Z 17008KT 10/01 A2997 RMK A01 T00990008  RH  053%=      5-min Rain = 0
KHA2 170055Z 17008KT 10/01 A2997 RMK A01 T00990008  RH  053%=      5-min Rain = 0
KHA2 170056Z 17008KT 10/01 A2997 RMK A01 T01000008  RH  053%=      5-min Rain = 0
KHA2 170057Z 17008KT 10/01 A2997 RMK A01 T01000008  RH  053%=      5-min Rain = 0
KHA2 170058Z 17008KT 10/01 A2997 RMK A01 T01010008  RH  053%=      5-min Rain = 0
KHA2 170059Z 18007KT 10/01 A2997 RMK A01 T01010008  RH  053%=      5-min Rain = 0
KHA2 170100Z 17008KT 10/01 A2997 RMK A01 T01010008  RH  053%=      5-min Rain = 0
KHA2 170101Z 18008KT 10/01 A2997 RMK A01 T01000008  RH  053%=      5-min Rain = 0
KHA2 170102Z 18008KT 10/01 A2997 RMK A01 T01000008  RH  053%=      5-min Rain = 0
KHA2 170103Z 18008KT 10/01 A2997 RMK A01 T00990008  RH  053%=      5-min Rain = 0
KHA2 170104Z 18007KT 10/01 A2997 RMK A01 T00990008  RH  053%=      5-min Rain = 0
KHA2 170105Z 18007KT 10/01 A2997 RMK A01 T00990008  RH  053%=      5-min Rain = 0
KHA2 170106Z 18007KT 10/01 A2997 RMK A01 T00980007  RH  053%=      5-min Rain = 0
KHA2 170107Z 18007KT 10/01 A2997 RMK A01 T00980007  RH  053%=      5-min Rain = 0
KHA2 170108Z 17007KT 10/01 A2997 RMK A01 T00970007  RH  054%=      5-min Rain = 0
KHA2 170109Z 17007KT 10/01 A2997 RMK A01 T00960007  RH  054%=      5-min Rain = 0
KHA2 170110Z 17007KT 10/01 A2997 RMK A01 T00950007  RH  054%=      5-min Rain = 0
KHA2 170111Z 17006KT 10/01 A2997 RMK A01 T00950007  RH  054%=      5-min Rain = 0
KHA2 170112Z 16006KT 09/01 A2997 RMK A01 T00940007  RH  054%=      5-min Rain = 0
KHA2 170113Z 16006KT 09/01 A2997 RMK A01 T00930006  RH  055%=      5-min Rain = 0
KHA2 170114Z 16006KT 09/01 A2997 RMK A01 T00920006  RH  055%=      5-min Rain = 0
KHA2 170115Z 16006KT 09/01 A2997 RMK A01 T00910006  RH  055%=      5-min Rain = 0
KHA2 170116Z 16006KT 09/01 A2997 RMK A01 T00900006  RH  055%=      5-min Rain = 0
KHA2 170117Z 16006KT 09/01 A2997 RMK A01 T00900006  RH  056%=      5-min Rain = 0
KHA2 170118Z 16006KT 09/01 A2997 RMK A01 T00900007  RH  056%=      5-min Rain = 0
KHA2 170119Z 16006KT 09/01 A2997 RMK A01 T00900007  RH  056%=      5-min Rain = 0
KHA2 170120Z 16006KT 09/01 A2997 RMK A01 T00890007  RH  056%=      5-min Rain = 0
KHA2 170121Z 16006KT 09/01 A2997 RMK A01 T00890006  RH  056%=      5-min Rain = 0
KHA2 170122Z 16006KT 09/01 A2997 RMK A01 T00880007  RH  056%=      5-min Rain = 0
KHA2 170123Z 16006KT 09/01 A2997 RMK A01 T00880006  RH  057%=      5-min Rain = 0
KHA2 170124Z 16006KT 09/01 A2997 RMK A01 T00870006  RH  057%=      5-min Rain = 0
KHA2 170125Z 16006KT 09/01 A2997 RMK A01 T00870006  RH  057%=      5-min Rain = 0
KHA2 170126Z 16006KT 09/01 A2997 RMK A01 T00870006  RH  057%=      5-min Rain = 0
KHA2 170127Z 16006KT 09/01 A2997 RMK A01 T00860006  RH  057%=      5-min Rain = 0
KHA2 170128Z 16006KT 09/01 A2997 RMK A01 T00850006  RH  057%=      5-min Rain = 0
KHA2 170129Z 16006KT 08/01 A2997 RMK A01 T00840006  RH  058%=      5-min Rain = 0
KHA2 170130Z 16006KT 08/01 A2997 RMK A01 T00840006  RH  058%=      5-min Rain = 0
KHA2 170131Z 16006KT 08/01 A2997 RMK A01 T00830006  RH  058%=      5-min Rain = 0
KHA2 170132Z 17006KT 08/01 A2997 RMK A01 T00820005  RH  058%=      5-min Rain = 0
KHA2 170133Z 17006KT 08/00 A2997 RMK A01 T00800004  RH  059%=      5-min Rain = 0
KHA2 170134Z 17005KT 08/00 A2997 RMK A01 T00780003  RH  059%=      5-min Rain = 0
KHA2 170135Z 17005KT 08/00 A2997 RMK A01 T00770003  RH  060%=      5-min Rain = 0
KHA2 170136Z 17005KT 08/00 A2997 RMK A01 T00750003  RH  060%=      5-min Rain = 0
KHA2 170137Z 17005KT 07/00 A2997 RMK A01 T00740004  RH  061%=      5-min Rain = 0
KHA2 170138Z 17005KT 07/00 A2997 RMK A01 T00740004  RH  061%=      5-min Rain = 0
KHA2 170139Z 17006KT 07/00 A2997 RMK A01 T00740004  RH  061%=      5-min Rain = 0
KHA2 170140Z 17006KT 07/00 A2997 RMK A01 T00730004  RH  061%=      5-min Rain = 0
KHA2 170141Z 17006KT 07/00 A2997 RMK A01 T00730004  RH  061%=      5-min Rain = 0
KHA2 170142Z 17006KT 07/00 A2997 RMK A01 T00720003  RH  062%=      5-min Rain = 0
KHA2 170143Z 17006KT 07/00 A2997 RMK A01 T00720003  RH  062%=      5-min Rain = 0
KHA2 170144Z 17006KT 07/00 A2997 RMK A01 T00720004  RH  062%=      5-min Rain = 0
KHA2 170145Z 17006KT 07/00 A2997 RMK A01 T00720004  RH  062%=      5-min Rain = 0
KHA2 170146Z 17006KT 07/01 A2997 RMK A01 T00740005  RH  062%=      5-min Rain = 0
KHA2 170147Z 17006KT 07/01 A2997 RMK A01 T00740005  RH  061%=      5-min Rain = 0
KHA2 170148Z 17006KT 08/01 A2997 RMK A01 T00750005  RH  061%=      5-min Rain = 0
KHA2 170149Z 17005KT 08/01 A2997 RMK A01 T00760005  RH  061%=      5-min Rain = 0
KHA2 170150Z 17005KT 08/01 A2997 RMK A01 T00760005  RH  061%=      5-min Rain = 0
KHA2 170151Z 17005KT 08/01 A2997 RMK A01 T00760005  RH  061%=      5-min Rain = 0
KHA2 170152Z 17005KT 08/01 A2997 RMK A01 T00760005  RH  060%=      5-min Rain = 0
KHA2 170153Z 17005KT 08/01 A2997 RMK A01 T00760005  RH  060%=      5-min Rain = 0
KHA2 170154Z 17005KT 08/01 A2997 RMK A01 T00760005  RH  060%=      5-min Rain = 0
KHA2 170155Z 17005KT 08/01 A2997 RMK A01 T00760005  RH  060%=      5-min Rain = 0
KHA2 170156Z 17005KT 08/01 A2997 RMK A01 T00760005  RH  061%=      5-min Rain = 0
KHA2 170157Z 17005KT 08/00 A2997 RMK A01 T00760004  RH  061%=      5-min Rain = 0
KHA2 170158Z 17006KT 08/00 A2997 RMK A01 T00750004  RH  061%=      5-min Rain = 0
KHA2 170159Z 17005KT 08/00 A2997 RMK A01 T00750004  RH  061%=      5-min Rain = 0
KHA2 170200Z 17005KT 07/00 A2997 RMK A01 T00740004  RH  061%=      5-min Rain = 0
KHA2 170201Z 18005KT 07/00 A2997 RMK A01 T00740003  RH  061%=      5-min Rain = 0
KHA2 170202Z 18005KT 07/00 A2998 RMK A01 T00730003  RH  061%=      5-min Rain = 0
KHA2 170203Z 18004KT 07/00 A2998 RMK A01 T00730003  RH  061%=      5-min Rain = 0
KHA2 170204Z 18005KT 07/00 A2998 RMK A01 T00720003  RH  061%=      5-min Rain = 0
KHA2 170205Z 18005KT 07/00 A2998 RMK A01 T00720003  RH  062%=      5-min Rain = 0
KHA2 170206Z 18005KT 07/00 A2997 RMK A01 T00720003  RH  062%=      5-min Rain = 0
KHA2 170207Z 17006KT 07/00 A2997 RMK A01 T00730004  RH  062%=      5-min Rain = 0
KHA2 170208Z 17006KT 07/00 A2997 RMK A01 T00730004  RH  061%=      5-min Rain = 0
KHA2 170209Z 17006KT 07/00 A2997 RMK A01 T00740004  RH  061%=      5-min Rain = 0
KHA2 170210Z 18006KT 07/00 A2997 RMK A01 T00740003  RH  061%=      5-min Rain = 0
KHA2 170211Z 18006KT 07/00 A2997 RMK A01 T00730003  RH  061%=      5-min Rain = 0
KHA2 170212Z 18006KT 07/00 A2997 RMK A01 T00720002  RH  061%=      5-min Rain = 0
KHA2 170213Z 18006KT 07/00 A2997 RMK A01 T00710001  RH  061%=      5-min Rain = 0
KHA2 170214Z 18006KT 07/00 A2997 RMK A01 T00690001  RH  062%=      5-min Rain = 0
KHA2 170215Z 18007KT 07/00 A2997 RMK A01 T00680000  RH  062%=      5-min Rain = 0
KHA2 170216Z 18007KT 07/00 A2997 RMK A01 T00660001  RH  063%=      5-min Rain = 0
KHA2 170217Z 18007KT 07/00 A2997 RMK A01 T00660001  RH  063%=      5-min Rain = 0
KHA2 170218Z 18007KT 07/00 A2997 RMK A01 T00660002  RH  064%=      5-min Rain = 0
KHA2 170219Z 19007KT 07/00 A2997 RMK A01 T00660002  RH  064%=      5-min Rain = 0
KHA2 170220Z 18007KT 07/00 A2997 RMK A01 T00660002  RH  064%=      5-min Rain = 0
KHA2 170221Z 18008KT 07/00 A2997 RMK A01 T00650002  RH  064%=      5-min Rain = 0
KHA2 170222Z 18008KT 07/00 A2997 RMK A01 T00660002  RH  064%=      5-min Rain = 0
KHA2 170223Z 18008KT 07/00 A2997 RMK A01 T00660002  RH  064%=      5-min Rain = 0
KHA2 170224Z 18008KT 07/00 A2997 RMK A01 T00660003  RH  064%=      5-min Rain = 0
KHA2 170225Z 18008KT 07/00 A2997 RMK A01 T00660003  RH  064%=      5-min Rain = 0
KHA2 170226Z 18008KT 07/00 A2997 RMK A01 T00660003  RH  064%=      5-min Rain = 0
KHA2 170227Z 18008KT 07/00 A2997 RMK A01 T00660003  RH  064%=      5-min Rain = 0
KHA2 170228Z 19007KT 07/00 A2997 RMK A01 T00660003  RH  064%=      5-min Rain = 0
KHA2 170229Z 19007KT 07/00 A2997 RMK A01 T00650003  RH  064%=      5-min Rain = 0
KHA2 170230Z 19007KT 06/00 A2997 RMK A01 T00640003  RH  065%=      5-min Rain = 0
KHA2 170231Z 19007KT 06/00 A2997 RMK A01 T00640003  RH  065%=      5-min Rain = 0
KHA2 170232Z 19007KT 06/00 A2997 RMK A01 T00640004  RH  065%=      5-min Rain = 0
KHA2 170233Z 19007KT 06/00 A2997 RMK A01 T00640004  RH  065%=      5-min Rain = 0
KHA2 170234Z 19007KT 07/01 A2997 RMK A01 T00650005  RH  065%=      5-min Rain = 0
KHA2 170235Z 19007KT 07/01 A2997 RMK A01 T00660006  RH  065%=      5-min Rain = 0
KHA2 170236Z 20007KT 07/01 A2997 RMK A01 T00670007  RH  065%=      5-min Rain = 0
KHA2 170237Z 19006KT 07/01 A2997 RMK A01 T00690007  RH  065%=      5-min Rain = 0
KHA2 170238Z 19006KT 07/01 A2997 RMK A01 T00700008  RH  064%=      5-min Rain = 0
KHA2 170239Z 19007KT 07/01 A2997 RMK A01 T00720008  RH  064%=      5-min Rain = 0
KHA2 170240Z 19006KT 07/01 A2997 RMK A01 T00720008  RH  064%=      5-min Rain = 0
KHA2 170241Z 19006KT 07/01 A2997 RMK A01 T00730009  RH  063%=      5-min Rain = 0
KHA2 170242Z 18006KT 07/01 A2997 RMK A01 T00740009  RH  063%=      5-min Rain = 0
KHA2 170243Z 18006KT 07/01 A2997 RMK A01 T00740008  RH  063%=      5-min Rain = 0
KHA2 170244Z 18006KT 07/01 A2997 RMK A01 T00730008  RH  063%=      5-min Rain = 0
KHA2 170245Z 18006KT 07/01 A2997 RMK A01 T00720007  RH  063%=      5-min Rain = 0
KHA2 170246Z 18005KT 07/01 A2997 RMK A01 T00710006  RH  064%=      5-min Rain = 0
KHA2 170247Z 18005KT 07/01 A2997 RMK A01 T00690005  RH  064%=      5-min Rain = 0
KHA2 170248Z 18005KT 07/01 A2997 RMK A01 T00680005  RH  064%=      5-min Rain = 0
KHA2 170249Z 18005KT 07/00 A2997 RMK A01 T00670004  RH  064%=      5-min Rain = 0
KHA2 170250Z 18005KT 07/00 A2997 RMK A01 T00650003  RH  064%=      5-min Rain = 0
KHA2 170251Z 18005KT 06/00 A2997 RMK A01 T00640003  RH  065%=      5-min Rain = 0
KHA2 170252Z 18006KT 06/00 A2997 RMK A01 T00630003  RH  065%=      5-min Rain = 0
KHA2 170253Z 18006KT 06/00 A2997 RMK A01 T00620003  RH  066%=      5-min Rain = 0
KHA2 170254Z 18006KT 06/00 A2997 RMK A01 T00620003  RH  066%=      5-min Rain = 0
KHA2 170255Z 18006KT 06/00 A2997 RMK A01 T00620003  RH  066%=      5-min Rain = 0
KHA2 170256Z 18006KT 06/00 A2997 RMK A01 T00620003  RH  066%=      5-min Rain = 0
KHA2 170257Z 18006KT 06/00 A2997 RMK A01 T00620003  RH  066%=      5-min Rain = 0
KHA2 170258Z 18006KT 06/00 A2997 RMK A01 T00610003  RH  066%=      5-min Rain = 0
KHA2 170259Z 18006KT 06/00 A2997 RMK A01 T00610004  RH  067%=      5-min Rain = 0
KHA2 170300Z 18006KT 06/00 A2997 RMK A01 T00610004  RH  067%=      5-min Rain = 0
KHA2 170301Z 18006KT 06/00 A2997 RMK A01 T00600004  RH  067%=      5-min Rain = 0
KHA2 170302Z 18006KT 06/00 A2997 RMK A01 T00600004  RH  067%=      5-min Rain = 0
KHA2 170303Z 18005KT 06/01 A2997 RMK A01 T00610005  RH  067%=      5-min Rain = 0
KHA2 170304Z 18005KT 06/01 A2997 RMK A01 T00600005  RH  067%=      5-min Rain = 0
KHA2 170305Z 19005KT 06/01 A2997 RMK A01 T00610005  RH  067%=      5-min Rain = 0
KHA2 170306Z 19005KT 06/01 A2997 RMK A01 T00600005  RH  068%=      5-min Rain = 0
KHA2 170307Z 19005KT 06/01 A2997 RMK A01 T00600005  RH  068%=      5-min Rain = 0
KHA2 170308Z 19004KT 06/01 A2997 RMK A01 T00600005  RH  068%=      5-min Rain = 0
KHA2 170309Z 19004KT 06/01 A2998 RMK A01 T00610005  RH  068%=      5-min Rain = 0
KHA2 170310Z 20004KT 06/01 A2998 RMK A01 T00610006  RH  067%=      5-min Rain = 0
KHA2 170311Z 20004KT 06/01 A2998 RMK A01 T00620006  RH  067%=      5-min Rain = 0
KHA2 170312Z 20003KT 06/01 A2998 RMK A01 T00620006  RH  067%=      5-min Rain = 0
KHA2 170313Z 19003KT 06/01 A2998 RMK A01 T00620006  RH  067%=      5-min Rain = 0
KHA2 170314Z 19004KT 06/01 A2998 RMK A01 T00620006  RH  067%=      5-min Rain = 0
KHA2 170315Z 19004KT 06/01 A2998 RMK A01 T00620006  RH  067%=      5-min Rain = 0
KHA2 170316Z 19004KT 06/01 A2998 RMK A01 T00620007  RH  068%=      5-min Rain = 0
KHA2 170317Z 19004KT 06/01 A2998 RMK A01 T00630007  RH  067%=      5-min Rain = 0
KHA2 170318Z 19004KT 06/01 A2998 RMK A01 T00630007  RH  067%=      5-min Rain = 0
KHA2 170319Z 20004KT 06/01 A2998 RMK A01 T00640007  RH  067%=      5-min Rain = 0
KHA2 170320Z 20004KT 06/01 A2998 RMK A01 T00640007  RH  067%=      5-min Rain = 0
KHA2 170321Z 19004KT 07/01 A2998 RMK A01 T00650007  RH  066%=      5-min Rain = 0
KHA2 170322Z 19004KT 07/01 A2998 RMK A01 T00650007  RH  066%=      5-min Rain = 0
KHA2 170323Z 19004KT 07/01 A2998 RMK A01 T00650007  RH  066%=      5-min Rain = 0
KHA2 170324Z 19004KT 07/01 A2998 RMK A01 T00660008  RH  066%=      5-min Rain = 0
KHA2 170325Z 19004KT 07/01 A2998 RMK A01 T00660008  RH  066%=      5-min Rain = 0
KHA2 170326Z 19004KT 07/01 A2998 RMK A01 T00660008  RH  066%=      5-min Rain = 0
KHA2 170327Z 19004KT 07/01 A2999 RMK A01 T00670008  RH  066%=      5-min Rain = 0
KHA2 170328Z 19004KT 07/01 A2999 RMK A01 T00670008  RH  066%=      5-min Rain = 0
KHA2 170329Z 19004KT 07/01 A2999 RMK A01 T00670008  RH  066%=      5-min Rain = 0
KHA2 170330Z 19004KT 07/01 A2999 RMK A01 T00670007  RH  066%=      5-min Rain = 0
KHA2 170331Z 19004KT 07/01 A2999 RMK A01 T00670007  RH  066%=      5-min Rain = 0
KHA2 170332Z 19004KT 07/01 A2998 RMK A01 T00670008  RH  066%=      5-min Rain = 0
KHA2 170333Z 19004KT 07/01 A2998 RMK A01 T00670008  RH  066%=      5-min Rain = 0
KHA2 170334Z 19004KT 07/01 A2998 RMK A01 T00670008  RH  066%=      5-min Rain = 0
KHA2 170335Z 19004KT 07/01 A2998 RMK A01 T00660008  RH  066%=      5-min Rain = 0
KHA2 170336Z 19004KT 07/01 A2998 RMK A01 T00660008  RH  066%=      5-min Rain = 0
KHA2 170337Z 19004KT 07/01 A2998 RMK A01 T00660008  RH  066%=      5-min Rain = 0
KHA2 170338Z 19004KT 07/01 A2998 RMK A01 T00650008  RH  067%=      5-min Rain = 0
KHA2 170339Z 19004KT 07/01 A2998 RMK A01 T00650007  RH  067%=      5-min Rain = 0
KHA2 170340Z 20005KT 06/01 A2998 RMK A01 T00640007  RH  067%=      5-min Rain = 0
KHA2 170341Z 20005KT 06/01 A2998 RMK A01 T00640008  RH  067%=      5-min Rain = 0
KHA2 170342Z 20005KT 06/01 A2998 RMK A01 T00640008  RH  067%=      5-min Rain = 0
KHA2 170343Z 20005KT 07/01 A2998 RMK A01 T00650008  RH  067%=      5-min Rain = 0
KHA2 170344Z 20005KT 07/01 A2998 RMK A01 T00660009  RH  067%=      5-min Rain = 0
KHA2 170345Z 20005KT 07/01 A2998 RMK A01 T00660008  RH  066%=      5-min Rain = 0
KHA2 170346Z 20005KT 07/01 A2998 RMK A01 T00660008  RH  066%=      5-min Rain = 0
KHA2 170347Z 20005KT 07/01 A2998 RMK A01 T00670008  RH  066%=      5-min Rain = 0
KHA2 170348Z 20005KT 07/01 A2998 RMK A01 T00660007  RH  066%=      5-min Rain = 0
KHA2 170349Z 20005KT 07/01 A2998 RMK A01 T00650006  RH  066%=      5-min Rain = 0
KHA2 170350Z 20005KT 06/01 A2998 RMK A01 T00640006  RH  066%=      5-min Rain = 0
KHA2 170351Z 20005KT 06/01 A2998 RMK A01 T00640006  RH  066%=      5-min Rain = 0
KHA2 170352Z 20005KT 07/01 A2998 RMK A01 T00650007  RH  066%=      5-min Rain = 0
KHA2 170353Z 20005KT 07/01 A2998 RMK A01 T00650007  RH  066%=      5-min Rain = 0
KHA2 170354Z 20005KT 07/01 A2998 RMK A01 T00650006  RH  066%=      5-min Rain = 0
KHA2 170355Z 20005KT 06/01 A2998 RMK A01 T00640005  RH  066%=      5-min Rain = 0
KHA2 170356Z 21005KT 06/01 A2998 RMK A01 T00630005  RH  066%=      5-min Rain = 0
KHA2 170357Z 21005KT 06/00 A2998 RMK A01 T00620004  RH  066%=      5-min Rain = 0
KHA2 170358Z 21005KT 06/00 A2998 RMK A01 T00610004  RH  067%=      5-min Rain = 0
KHA2 170359Z 21005KT 06/00 A2998 RMK A01 T00600003  RH  067%=      5-min Rain = 0
KHA2 170400Z 21005KT 06/00 A2997 RMK A01 T00590003  RH  067%=      5-min Rain = 0
KHA2 170401Z 21005KT 06/00 A2997 RMK A01 T00580002  RH  067%=      5-min Rain = 0
KHA2 170402Z 21005KT 06/00 A2997 RMK A01 T00570002  RH  068%=      5-min Rain = 0
KHA2 170403Z 21005KT 06/00 A2997 RMK A01 T00560002  RH  068%=      5-min Rain = 0
KHA2 170404Z 21005KT 06/00 A2997 RMK A01 T00550002  RH  069%=      5-min Rain = 0
KHA2 170405Z 21005KT 05/00 A2997 RMK A01 T00540002  RH  069%=      5-min Rain = 0
KHA2 170406Z 21005KT 05/00 A2997 RMK A01 T00540002  RH  069%=      5-min Rain = 0
KHA2 170407Z 21005KT 05/00 A2997 RMK A01 T00530002  RH  069%=      5-min Rain = 0
KHA2 170408Z 21005KT 05/00 A2997 RMK A01 T00520001  RH  069%=      5-min Rain = 0
KHA2 170409Z 21005KT 05/00 A2997 RMK A01 T00510001  RH  070%=      5-min Rain = 0
KHA2 170410Z 20005KT 05/00 A2998 RMK A01 T00510001  RH  070%=      5-min Rain = 0
KHA2 170411Z 20005KT 05/00 A2998 RMK A01 T00510001  RH  070%=      5-min Rain = 0
KHA2 170412Z 21005KT 05/00 A2998 RMK A01 T00510001  RH  070%=      5-min Rain = 0
KHA2 170413Z 21005KT 05/00 A2998 RMK A01 T00510001  RH  070%=      5-min Rain = 0
KHA2 170414Z 21005KT 05/00 A2997 RMK A01 T00510001  RH  070%=      5-min Rain = 0
KHA2 170415Z 21005KT 05/00 A2997 RMK A01 T005000-0  RH  070%=      5-min Rain = 0
KHA2 170416Z 21005KT 05/00 A2997 RMK A01 T004900-0  RH  070%=      5-min Rain = 0
KHA2 170417Z 21005KT 05/M00 A2997 RMK A01 T00491001  RH  070%=      5-min Rain = 0
KHA2 170418Z 21005KT 05/00 A2997 RMK A01 T005000-0  RH  070%=      5-min Rain = 0
KHA2 170419Z 21005KT 05/M00 A2997 RMK A01 T00501001  RH  070%=      5-min Rain = 0
KHA2 170420Z 21006KT 05/00 A2997 RMK A01 T00520001  RH  070%=      5-min Rain = 0
KHA2 170421Z 21006KT 05/00 A2997 RMK A01 T00530001  RH  069%=      5-min Rain = 0
KHA2 170422Z 21006KT 05/M00 A2998 RMK A01 T00521001  RH  069%=      5-min Rain = 0
KHA2 170423Z 21006KT 05/00 A2998 RMK A01 T00520000  RH  069%=      5-min Rain = 0
KHA2 170424Z 21006KT 05/00 A2998 RMK A01 T005200-0  RH  069%=      5-min Rain = 0
KHA2 170425Z 21006KT 05/M00 A2998 RMK A01 T00511001  RH  069%=      5-min Rain = 0
KHA2 170426Z 21006KT 05/M00 A2998 RMK A01 T00491002  RH  070%=      5-min Rain = 0
KHA2 170427Z 21006KT 05/M00 A2998 RMK A01 T00491001  RH  070%=      5-min Rain = 0
KHA2 170428Z 21006KT 05/00 A2998 RMK A01 T00490000  RH  070%=      5-min Rain = 0
KHA2 170429Z 21006KT 05/00 A2998 RMK A01 T00510001  RH  070%=      5-min Rain = 0
KHA2 170430Z 21006KT 05/00 A2998 RMK A01 T00510001  RH  070%=      5-min Rain = 0
KHA2 170431Z 22006KT 05/00 A2998 RMK A01 T00510000  RH  070%=      5-min Rain = 0
KHA2 170432Z 22005KT 05/M00 A2998 RMK A01 T00501001  RH  070%=      5-min Rain = 0
KHA2 170433Z 22006KT 05/M00 A2998 RMK A01 T00501001  RH  070%=      5-min Rain = 0
KHA2 170434Z 22006KT 05/M00 A2998 RMK A01 T00501001  RH  070%=      5-min Rain = 0
KHA2 170435Z 22007KT 05/M00 A2998 RMK A01 T00501001  RH  070%=      5-min Rain = 0
KHA2 170436Z 22007KT 05/M00 A2998 RMK A01 T00501001  RH  070%=      5-min Rain = 0
KHA2 170437Z 22007KT 05/00 A2998 RMK A01 T005000-0  RH  070%=      5-min Rain = 0
KHA2 170438Z 23007KT 05/00 A2998 RMK A01 T00500001  RH  070%=      5-min Rain = 0
KHA2 170439Z 23007KT 05/00 A2998 RMK A01 T00510002  RH  071%=      5-min Rain = 0
KHA2 170440Z 23007KT 05/00 A2998 RMK A01 T00520002  RH  070%=      5-min Rain = 0
KHA2 170441Z 23007KT 05/00 A2998 RMK A01 T00530002  RH  070%=      5-min Rain = 0
KHA2 170442Z 23007KT 06/00 A2998 RMK A01 T00550003  RH  069%=      5-min Rain = 0
KHA2 170443Z 23008KT 06/00 A2998 RMK A01 T00560003  RH  068%=      5-min Rain = 0
KHA2 170444Z 23008KT 06/00 A2998 RMK A01 T00580003  RH  068%=      5-min Rain = 0
KHA2 170445Z 23008KT 06/00 A2998 RMK A01 T00580003  RH  067%=      5-min Rain = 0
KHA2 170446Z 23009KT 06/00 A2998 RMK A01 T00590003  RH  067%=      5-min Rain = 0
KHA2 170447Z 22009KT 06/00 A2998 RMK A01 T00590003  RH  067%=      5-min Rain = 0
KHA2 170448Z 22009KT 06/00 A2998 RMK A01 T00590003  RH  067%=      5-min Rain = 0
KHA2 170449Z 22008KT 06/00 A2999 RMK A01 T00600003  RH  067%=      5-min Rain = 0
KHA2 170450Z 22008KT 06/00 A2999 RMK A01 T00600003  RH  067%=      5-min Rain = 0
KHA2 170451Z 23008KT 06/00 A2999 RMK A01 T00590003  RH  067%=      5-min Rain = 0
KHA2 170452Z 23007KT 06/00 A2999 RMK A01 T00590003  RH  067%=      5-min Rain = 0
KHA2 170453Z 23007KT 06/00 A2999 RMK A01 T00600003  RH  067%=      5-min Rain = 0
KHA2 170454Z 23007KT 06/00 A2999 RMK A01 T00590003  RH  067%=      5-min Rain = 0
KHA2 170455Z 23007KT 06/00 A2999 RMK A01 T00590003  RH  067%=      5-min Rain = 0
KHA2 170456Z 23007KT 06/00 A2999 RMK A01 T00590003  RH  067%=      5-min Rain = 0
KHA2 170457Z 23007KT 06/00 A2999 RMK A01 T00570002  RH  068%=      5-min Rain = 0
KHA2 170458Z 23007KT 06/00 A2999 RMK A01 T00570003  RH  068%=      5-min Rain = 0
KHA2 170459Z 23008KT 06/00 A2999 RMK A01 T00560003  RH  069%=      5-min Rain = 0
KHA2 170500Z 23008KT 06/00 A2999 RMK A01 T00550002  RH  069%=      5-min Rain = 0
KHA2 170501Z 23007KT 05/00 A2999 RMK A01 T00540002  RH  069%=      5-min Rain = 0
KHA2 170502Z 23007KT 05/00 A2999 RMK A01 T00530002  RH  070%=      5-min Rain = 0
KHA2 170503Z 23008KT 05/00 A2999 RMK A01 T00530003  RH  070%=      5-min Rain = 0
KHA2 170504Z 23008KT 05/00 A2999 RMK A01 T00520002  RH  070%=      5-min Rain = 0
KHA2 170505Z 24008KT 05/00 A2999 RMK A01 T00520002  RH  070%=      5-min Rain = 0
KHA2 170506Z 24008KT 05/00 A2999 RMK A01 T00520002  RH  070%=      5-min Rain = 0
KHA2 170507Z 24007KT 05/00 A2999 RMK A01 T00510000  RH  070%=      5-min Rain = 0
KHA2 170508Z 24007KT 05/00 A2999 RMK A01 T00510000  RH  070%=      5-min Rain = 0
KHA2 170509Z 24007KT 05/00 A2999 RMK A01 T00500001  RH  070%=      5-min Rain = 0
KHA2 170510Z 24007KT 05/00 A2998 RMK A01 T00510001  RH  070%=      5-min Rain = 0
KHA2 170511Z 24007KT 05/00 A2998 RMK A01 T00520002  RH  070%=      5-min Rain = 0
KHA2 170512Z 24007KT 05/00 A2998 RMK A01 T00540003  RH  070%=      5-min Rain = 0
KHA2 170513Z 24008KT 06/00 A2998 RMK A01 T00550003  RH  069%=      5-min Rain = 0
KHA2 170514Z 24008KT 06/00 A2998 RMK A01 T00550003  RH  069%=      5-min Rain = 0
KHA2 170515Z 24008KT 06/00 A2998 RMK A01 T00550003  RH  069%=      5-min Rain = 0
KHA2 170516Z 24008KT 06/00 A2998 RMK A01 T00560003  RH  069%=      5-min Rain = 0
KHA2 170517Z 24008KT 06/00 A2998 RMK A01 T00560003  RH  069%=      5-min Rain = 0
KHA2 170518Z 24008KT 06/00 A2998 RMK A01 T00560003  RH  069%=      5-min Rain = 0
KHA2 170519Z 24008KT 06/00 A2998 RMK A01 T00550003  RH  069%=      5-min Rain = 0
KHA2 170520Z 25008KT 06/00 A2998 RMK A01 T00560004  RH  069%=      5-min Rain = 0
KHA2 170521Z 25008KT 06/00 A2998 RMK A01 T00570004  RH  069%=      5-min Rain = 0
KHA2 170522Z 25007KT 06/01 A2998 RMK A01 T00580005  RH  068%=      5-min Rain = 0
KHA2 170523Z 25007KT 06/01 A2998 RMK A01 T00600005  RH  068%=      5-min Rain = 0
KHA2 170524Z 26007KT 06/00 A2998 RMK A01 T00610004  RH  067%=      5-min Rain = 0
KHA2 170525Z 26007KT 06/00 A2998 RMK A01 T00610004  RH  067%=      5-min Rain = 0
KHA2 170526Z 26007KT 06/00 A2998 RMK A01 T00610004  RH  066%=      5-min Rain = 0
KHA2 170527Z 26006KT 06/00 A2998 RMK A01 T00620004  RH  066%=      5-min Rain = 0
KHA2 170528Z 27007KT 06/01 A2998 RMK A01 T00630005  RH  066%=      5-min Rain = 0
KHA2 170529Z 27007KT 06/01 A2998 RMK A01 T00640005  RH  066%=      5-min Rain = 0
KHA2 170530Z 26007KT 07/01 A2998 RMK A01 T00650005  RH  065%=      5-min Rain = 0
KHA2 170531Z 26007KT 07/01 A2998 RMK A01 T00660005  RH  065%=      5-min Rain = 0
KHA2 170532Z 26007KT 07/01 A2998 RMK A01 T00670005  RH  065%=      5-min Rain = 0
KHA2 170533Z 26007KT 07/01 A2998 RMK A01 T00680005  RH  064%=      5-min Rain = 0
KHA2 170534Z 27006KT 07/01 A2998 RMK A01 T00680006  RH  064%=      5-min Rain = 0
KHA2 170535Z 27006KT 07/01 A2998 RMK A01 T00680006  RH  064%=      5-min Rain = 0
KHA2 170536Z 27006KT 07/01 A2998 RMK A01 T00680005  RH  064%=      5-min Rain = 0
KHA2 170537Z 27006KT 07/01 A2998 RMK A01 T00690006  RH  064%=      5-min Rain = 0
KHA2 170538Z 27006KT 07/01 A2998 RMK A01 T00700005  RH  064%=      5-min Rain = 0
KHA2 170539Z 27005KT 07/01 A2998 RMK A01 T00700006  RH  064%=      5-min Rain = 0
KHA2 170540Z 27005KT 07/01 A2998 RMK A01 T00710006  RH  064%=      5-min Rain = 0
KHA2 170541Z 28004KT 07/01 A2998 RMK A01 T00710006  RH  064%=      5-min Rain = 0
KHA2 170542Z 29003KT 07/01 A2998 RMK A01 T00710007  RH  064%=      5-min Rain = 0
KHA2 170543Z 30003KT 07/01 A2998 RMK A01 T00710007  RH  064%=      5-min Rain = 0
KHA2 170544Z 29003KT 07/01 A2998 RMK A01 T00720008  RH  064%=      5-min Rain = 0
KHA2 170545Z 30004KT 07/01 A2998 RMK A01 T00720007  RH  063%=      5-min Rain = 0
KHA2 170546Z 31005KT 07/01 A2998 RMK A01 T00730007  RH  063%=      5-min Rain = 0
KHA2 170547Z 30005KT 07/01 A2998 RMK A01 T00740007  RH  063%=      5-min Rain = 0
KHA2 170548Z 31004KT 07/01 A2998 RMK A01 T00740008  RH  063%=      5-min Rain = 0
KHA2 170549Z 30005KT 07/01 A2998 RMK A01 T00730007  RH  063%=      5-min Rain = 0
KHA2 170550Z 30005KT 07/01 A2998 RMK A01 T00710006  RH  063%=      5-min Rain = 0
KHA2 170551Z 29005KT 07/01 A2998 RMK A01 T00700007  RH  064%=      5-min Rain = 0
KHA2 170552Z 29005KT 07/01 A2998 RMK A01 T00700006  RH  064%=      5-min Rain = 0
KHA2 170553Z 30006KT 07/01 A2998 RMK A01 T00700006  RH  064%=      5-min Rain = 0
KHA2 170554Z 31007KT 07/01 A2998 RMK A01 T00690005  RH  064%=      5-min Rain = 0
KHA2 170555Z 33010KT 07/00 A2999 RMK A01 T00670004  RH  064%=      5-min Rain = 0
KHA2 170556Z 33013KT 07/00 A2999 RMK A01 T00650002  RH  064%=      5-min Rain = 0
KHA2 170557Z 33012KT 06/00 A2999 RMK A01 T00640002  RH  065%=      5-min Rain = 0
KHA2 170558Z 33010KT 06/00 A2999 RMK A01 T00630003  RH  065%=      5-min Rain = 0
KHA2 170559Z 33010KT 07/00 A2999 RMK A01 T00650004  RH  065%=      5-min Rain = 0

Page generated in 0.0712 seconds.